UAE229 OMDB-KSEA

Flight info

Callsign UAE229
Flight time N/A
Altitude 33000
Route DAVMO M318 ASMUK/N0496F320 W32 ROVAD L125 RADAL DCT IMKER DCT ULDUS P574 IBRUT/N0478F340 P574 RUTIL/K0885F340 P574 AKT/K0885F330 W324 ATR/K0880F340 W324 URL M161 MOF T793 GUBOM/K0891F350 T793 URIRA/K0896F340 T793 SONIB T533 ALUPO DCT IFOMA T533 GIMON T532 BAGOG/K0913F360 T532 NIRUT DCT 81N030E/N0490F360 82N027E/M083F360 84N020E 86N000E 87N020W 87N040W DCT OVBES DCT 85N090W/N0486F360 80N105W/N0487F380 75N110W 70N115W/N0485F390 65N117W 60N118W DCT YQU DCT YDC DCT JAKSN
Aircraft B77L/H-SDE1E2E3FGHIJ2J3J4J5M1RWXY/LB1D1

Departure

Time 2026-04-23 17:59
Airport Dubai International Airport (OMDB)

Arrival

Time N/A
Airport Seattle–Tacoma International Airport (KSEA)
Time Latitude Longitude Altitude Speed Heading
2026-04-23 17:45 25.24427 55.37215 39 ft 0 kts 210°
2026-04-23 17:52 25.24429 55.37216 39 ft 2 kts 210°
2026-04-23 17:52 25.24463 55.37238 36 ft 7 kts 210°
2026-04-23 17:53 25.24529 55.37241 37 ft 0 kts 122°
2026-04-23 17:54 25.24509 55.37275 36 ft 7 kts 122°
2026-04-23 17:55 25.24427 55.37416 41 ft 15 kts 123°
2026-04-23 17:55 25.24364 55.37535 43 ft 22 kts 119°
2026-04-23 17:55 25.24275 55.37701 45 ft 22 kts 121°
2026-04-23 17:56 25.24304 55.37794 46 ft 16 kts 38°
2026-04-23 17:56 25.24356 55.37835 44 ft 5 kts 36°
2026-04-23 17:56 25.24416 55.37883 48 ft 15 kts 36°
2026-04-23 17:57 25.24530 55.37967 49 ft 24 kts 33°
2026-04-23 17:57 25.24632 55.38042 47 ft 0 kts 32°
2026-04-23 17:57 25.24635 55.38045 47 ft 0 kts 32°
2026-04-23 17:58 25.24639 55.38048 47 ft 1 kts 32°
2026-04-23 17:58 25.24656 55.38059 47 ft 8 kts 32°
2026-04-23 17:58 25.24773 55.38054 46 ft 38 kts 318°
2026-04-23 17:58 25.25059 55.37570 45 ft 112 kts 302°
2026-04-23 17:59 25.25593 55.36618 34 ft 178 kts 301°
2026-04-23 17:59 25.26347 55.35296 27 ft 221 kts 303°
2026-04-23 17:59 25.27171 55.33837 613 ft 220 kts 302°
2026-04-23 17:59 25.27973 55.32380 1197 ft 230 kts 303°
2026-04-23 18:00 25.28801 55.30859 1870 ft 231 kts 306°
2026-04-23 18:00 25.29963 55.29657 2173 ft 231 kts 342°
2026-04-23 18:00 25.31549 55.29433 2371 ft 235 kts
2026-04-23 18:00 25.33225 55.29515 2653 ft 245 kts
2026-04-23 18:01 25.34966 55.29567 3051 ft 254 kts
2026-04-23 18:01 25.36745 55.29618 3577 ft 256 kts
2026-04-23 18:01 25.38530 55.29662 4117 ft 257 kts
2026-04-23 18:01 25.40303 55.29867 4519 ft 259 kts 19°
2026-04-23 18:02 25.42009 55.30663 4729 ft 274 kts 23°
2026-04-23 18:02 25.43786 55.31526 5114 ft 282 kts 22°
2026-04-23 18:02 25.45594 55.32376 5547 ft 290 kts 21°
2026-04-23 18:02 25.47469 55.33254 6014 ft 296 kts 20°
2026-04-23 18:03 25.49382 55.34146 6506 ft 299 kts 20°
2026-04-23 18:03 25.51291 55.35036 6869 ft 300 kts 20°
2026-04-23 18:03 25.53237 55.35942 6848 ft 304 kts 20°
2026-04-23 18:03 25.55176 55.36844 6979 ft 300 kts 20°
2026-04-23 18:04 25.57104 55.37739 7482 ft 301 kts 20°
2026-04-23 18:04 25.58978 55.38815 7810 ft 309 kts 32°
2026-04-23 18:04 25.60737 55.40222 8267 ft 313 kts 34°
2026-04-23 18:04 25.62488 55.41671 8800 ft 315 kts 34°
2026-04-23 18:05 25.64275 55.43107 9312 ft 319 kts 33°
2026-04-23 18:05 25.66093 55.44538 9749 ft 323 kts 33°
2026-04-23 18:05 25.67895 55.46062 10078 ft 330 kts 39°
2026-04-23 18:05 25.69605 55.47808 10410 ft 338 kts 42°
2026-04-23 18:06 25.71298 55.49635 10858 ft 342 kts 43°
2026-04-23 18:06 25.73007 55.51484 11347 ft 345 kts 43°
2026-04-23 18:06 25.74742 55.53342 11811 ft 348 kts 42°
2026-04-23 18:06 25.76505 55.55212 12280 ft 352 kts 42°
2026-04-23 18:07 25.78289 55.57094 12746 ft 355 kts 42°
2026-04-23 18:07 25.80090 55.58989 13216 ft 359 kts 42°
2026-04-23 18:07 25.81889 55.60878 13697 ft 362 kts 42°
2026-04-23 18:07 25.83724 55.62800 14120 ft 365 kts 41°
2026-04-23 18:08 25.84976 55.64112 14435 ft 366 kts 41°
2026-04-23 18:08 25.87572 55.66493 15029 ft 366 kts 31°
2026-04-23 18:08 25.89737 55.68010 15450 ft 368 kts 27°
2026-04-23 18:08 25.91938 55.69468 15887 ft 370 kts 27°
2026-04-23 18:09 25.94144 55.70948 16362 ft 371 kts 27°
2026-04-23 18:09 25.96348 55.72466 16814 ft 373 kts 28°
2026-04-23 18:09 25.98548 55.74015 17255 ft 375 kts 28°
2026-04-23 18:09 26.00745 55.75574 17702 ft 377 kts 28°
2026-04-23 18:10 26.02936 55.77130 18147 ft 378 kts 27°
2026-04-23 18:10 26.05186 55.78615 18516 ft 375 kts 18°
2026-04-23 18:10 26.07647 55.79491 18823 ft 369 kts
2026-04-23 18:10 26.10183 55.79721 19146 ft 362 kts 350°
2026-04-23 18:11 26.12697 55.79491 19378 ft 364 kts 348°
2026-04-23 18:11 26.15239 55.79242 19680 ft 367 kts 349°
2026-04-23 18:11 26.17787 55.79036 20050 ft 368 kts 353°
2026-04-23 18:11 26.20403 55.79112 20165 ft 383 kts
2026-04-23 18:12 26.23085 55.79563 20336 ft 393 kts
2026-04-23 18:12 26.25759 55.80121 20641 ft 398 kts
2026-04-23 18:12 26.28487 55.80708 21004 ft 400 kts
2026-04-23 18:12 26.31225 55.81298 21388 ft 402 kts
2026-04-23 18:13 26.33979 55.81887 21750 ft 404 kts
2026-04-23 18:13 26.36756 55.82476 22085 ft 407 kts
2026-04-23 18:13 26.39544 55.83062 22434 ft 410 kts
2026-04-23 18:13 26.42358 55.83653 22791 ft 412 kts
2026-04-23 18:14 26.45182 55.84244 23122 ft 415 kts
2026-04-23 18:14 26.48034 55.84841 23460 ft 417 kts
2026-04-23 18:14 26.50897 55.85441 23781 ft 419 kts
2026-04-23 18:14 26.53766 55.86043 24080 ft 421 kts
2026-04-23 18:15 26.56660 55.86651 24380 ft 423 kts
2026-04-23 18:15 26.59523 55.87252 24690 ft 425 kts
2026-04-23 18:15 26.62440 55.87866 25012 ft 427 kts
2026-04-23 18:15 26.65367 55.88483 25293 ft 429 kts
2026-04-23 18:16 26.68314 55.89105 25576 ft 432 kts
2026-04-23 18:16 26.71274 55.89730 25874 ft 434 kts
2026-04-23 18:16 26.74260 55.90358 26186 ft 435 kts
2026-04-23 18:17 26.80257 55.91348 26685 ft 438 kts
2026-04-23 18:17 26.83325 55.91709 26948 ft 441 kts
2026-04-23 18:17 26.86343 55.92048 27227 ft 443 kts
2026-04-23 18:17 26.89442 55.92399 27506 ft 445 kts
2026-04-23 18:18 26.92544 55.92759 27783 ft 448 kts
2026-04-23 18:18 26.95649 55.93128 28028 ft 451 kts
2026-04-23 18:18 26.98753 55.93502 28272 ft 454 kts
2026-04-23 18:18 27.01920 55.93888 28521 ft 456 kts
2026-04-23 18:19 27.05074 55.94275 28788 ft 458 kts
2026-04-23 18:19 27.08256 55.94666 29039 ft 461 kts
2026-04-23 18:19 27.11433 55.95057 29297 ft 463 kts
2026-04-23 18:19 27.14661 55.95454 29542 ft 465 kts
2026-04-23 18:20 27.17874 55.95849 29777 ft 468 kts
2026-04-23 18:20 27.21111 55.96248 29981 ft 471 kts
2026-04-23 18:20 27.24402 55.96653 30180 ft 473 kts
2026-04-23 18:20 27.27659 55.97054 30384 ft 474 kts
2026-04-23 18:21 27.30946 55.97459 30588 ft 476 kts
2026-04-23 18:21 27.34242 55.97865 30773 ft 478 kts
2026-04-23 18:21 27.37572 55.98275 30921 ft 481 kts
2026-04-23 18:21 27.40883 55.98684 31113 ft 483 kts
2026-04-23 18:22 27.44246 55.99100 31286 ft 485 kts
2026-04-23 18:22 27.47615 55.99515 31394 ft 488 kts
2026-04-23 18:22 27.50993 55.99933 31513 ft 491 kts
2026-04-23 18:22 27.54416 56.00356 31664 ft 493 kts
2026-04-23 18:23 27.56678 56.00637 31765 ft 494 kts
2026-04-23 18:23 27.64644 56.01626 32191 ft 495 kts
2026-04-23 18:24 27.71530 56.02479 32429 ft 499 kts
2026-04-23 18:24 27.74987 56.02909 32561 ft 500 kts
2026-04-23 18:24 27.78453 56.03341 32692 ft 501 kts
2026-04-23 18:25 27.85393 56.04206 32914 ft 503 kts
2026-04-23 18:25 27.88878 56.04640 33033 ft 504 kts
2026-04-23 18:25 27.92329 56.05071 33134 ft 505 kts
2026-04-23 18:26 27.99333 56.05949 33314 ft 508 kts
2026-04-23 18:26 28.06380 56.06835 33445 ft 511 kts
2026-04-23 18:27 28.13461 56.07542 33564 ft 508 kts 353°
2026-04-23 18:27 28.20450 56.06876 33687 ft 500 kts 343°
2026-04-23 18:28 28.27156 56.05004 33799 ft 496 kts 338°
2026-04-23 18:28 28.33782 56.02940 33966 ft 497 kts 338°
2026-04-23 18:29 28.40475 56.00899 34114 ft 497 kts 338°
2026-04-23 18:29 28.47194 55.98889 34224 ft 499 kts 338°
2026-04-23 18:30 28.53911 55.96887 34353 ft 499 kts 338°
2026-04-23 18:30 28.60644 55.94875 34479 ft 499 kts 338°
2026-04-23 18:31 28.67321 55.92875 34601 ft 500 kts 338°
2026-04-23 18:31 28.74048 55.90858 34681 ft 500 kts 337°
2026-04-23 18:32 28.80787 55.88838 34767 ft 501 kts 337°
2026-04-23 18:32 28.87542 55.86806 34814 ft 502 kts 337°
2026-04-23 18:33 28.94287 55.84748 34860 ft 502 kts 336°
2026-04-23 18:33 29.01040 55.82682 34938 ft 502 kts 336°
2026-04-23 18:34 29.07802 55.80620 35015 ft 502 kts 336°
2026-04-23 18:34 29.14513 55.78572 35053 ft 502 kts 336°
2026-04-23 18:35 29.21256 55.76514 35123 ft 501 kts 336°
2026-04-23 18:35 29.27971 55.74462 35213 ft 500 kts 336°
2026-04-23 18:36 29.34696 55.72403 35271 ft 499 kts 336°
2026-04-23 18:36 29.41402 55.70349 35320 ft 498 kts 336°
2026-04-23 18:37 29.48061 55.68310 35388 ft 497 kts 336°
2026-04-23 18:37 29.54703 55.66174 35432 ft 492 kts 332°
2026-04-23 18:38 29.60892 55.63081 35466 ft 480 kts 324°
2026-04-23 18:38 29.66841 55.59594 35495 ft 480 kts 324°
2026-04-23 18:39 29.72810 55.56131 35516 ft 480 kts 324°
2026-04-23 18:39 29.78745 55.52725 35541 ft 480 kts 324°
2026-04-23 18:40 29.84719 55.49303 35574 ft 479 kts 324°
2026-04-23 18:40 29.90691 55.45875 35589 ft 479 kts 324°
2026-04-23 18:41 29.96671 55.42438 35614 ft 479 kts 324°
2026-04-23 18:41 30.02621 55.39013 35643 ft 478 kts 324°
2026-04-23 18:42 30.08523 55.35597 35666 ft 477 kts 324°
2026-04-23 18:42 30.14454 55.32151 35700 ft 477 kts 324°
2026-04-23 18:43 30.20394 55.28701 35740 ft 476 kts 323°
2026-04-23 18:43 30.26323 55.25259 35746 ft 476 kts 323°
2026-04-23 18:44 30.31234 55.22406 35650 ft 475 kts 323°
2026-04-23 18:44 30.34179 55.20694 35545 ft 473 kts 323°
2026-04-23 18:44 30.38072 55.18428 35435 ft 471 kts 323°
2026-04-23 18:45 30.43934 55.15011 35258 ft 472 kts 323°
2026-04-23 18:45 30.48816 55.12160 35141 ft 472 kts 323°
2026-04-23 18:46 30.54682 55.08734 35078 ft 472 kts 323°
2026-04-23 18:46 30.60556 55.05299 35079 ft 471 kts 323°
2026-04-23 18:47 30.66408 55.01874 35067 ft 470 kts 323°
2026-04-23 18:47 30.72231 54.98462 35049 ft 470 kts 323°
2026-04-23 18:48 30.78069 54.95030 35039 ft 470 kts 323°
2026-04-23 18:48 30.83898 54.91581 35029 ft 469 kts 323°
2026-04-23 18:49 30.89684 54.88155 35019 ft 469 kts 323°
2026-04-23 18:49 30.95511 54.84708 35009 ft 469 kts 323°
2026-04-23 18:50 31.00356 54.81841 35005 ft 469 kts 323°
2026-04-23 18:50 31.07162 54.77806 35005 ft 469 kts 323°
2026-04-23 18:51 31.12992 54.74344 35002 ft 470 kts 323°
2026-04-23 18:51 31.18793 54.70896 34988 ft 471 kts 323°
2026-04-23 18:52 31.24625 54.67426 34983 ft 471 kts 323°
2026-04-23 18:52 31.30473 54.63942 34979 ft 471 kts 323°
2026-04-23 18:53 31.36322 54.60454 34971 ft 471 kts 323°
2026-04-23 18:53 31.42165 54.56966 34967 ft 472 kts 323°
2026-04-23 18:54 31.47981 54.53481 34958 ft 472 kts 323°
2026-04-23 18:54 31.53836 54.49958 34955 ft 472 kts 323°
2026-04-23 18:55 31.59678 54.46446 34943 ft 472 kts 323°
2026-04-23 18:55 31.65489 54.42953 34938 ft 472 kts 323°
2026-04-23 18:56 31.70387 54.40009 34928 ft 471 kts 323°
2026-04-23 18:56 31.77168 54.35919 34933 ft 471 kts 323°
2026-04-23 18:57 31.83002 54.32402 34919 ft 471 kts 323°
2026-04-23 18:57 31.88925 54.29054 34910 ft 478 kts 329°
2026-04-23 18:58 31.95327 54.26764 34912 ft 490 kts 338°
2026-04-23 18:58 32.02025 54.25097 34906 ft 491 kts 339°
2026-04-23 18:59 32.08728 54.23442 34893 ft 492 kts 339°
2026-04-23 18:59 32.15434 54.21743 34898 ft 492 kts 339°
2026-04-23 19:00 32.22087 54.20041 34889 ft 493 kts 339°
2026-04-23 19:00 32.28812 54.18320 34890 ft 494 kts 339°
2026-04-23 19:01 32.35542 54.16600 34887 ft 494 kts 339°
2026-04-23 19:01 32.42281 54.14857 34883 ft 495 kts 339°
2026-04-23 19:02 32.48955 54.13088 34885 ft 495 kts 339°
2026-04-23 19:02 32.55679 54.11308 34887 ft 495 kts 339°
2026-04-23 19:03 32.62412 54.09534 34872 ft 495 kts 339°
2026-04-23 19:03 32.69150 54.07759 34879 ft 496 kts 339°
2026-04-23 19:04 32.75899 54.05979 34886 ft 496 kts 339°
2026-04-23 19:04 32.82647 54.04199 34885 ft 497 kts 339°
2026-04-23 19:05 32.89418 54.02425 34885 ft 498 kts 339°
2026-04-23 19:05 32.96160 54.00730 34894 ft 499 kts 339°
2026-04-23 19:06 33.02965 53.99030 34899 ft 499 kts 339°
2026-04-23 19:06 33.09772 53.97318 34906 ft 500 kts 339°
2026-04-23 19:07 33.16591 53.95600 34907 ft 500 kts 339°
2026-04-23 19:07 33.23429 53.93949 34898 ft 503 kts 341°
2026-04-23 19:08 33.30295 53.92514 34909 ft 504 kts 342°
2026-04-23 19:08 33.37215 53.91071 34908 ft 503 kts 341°
2026-04-23 19:09 33.44113 53.89596 34911 ft 503 kts 341°
2026-04-23 19:09 33.50778 53.87599 34910 ft 487 kts 328°
2026-04-23 19:10 33.56506 53.83581 34911 ft 469 kts 313°
2026-04-23 19:10 33.61275 53.78375 34911 ft 462 kts 309°
2026-04-23 19:11 33.65982 53.73108 34916 ft 463 kts 310°
2026-04-23 19:11 33.70699 53.67892 34915 ft 463 kts 310°
2026-04-23 19:12 33.74669 53.63536 34919 ft 464 kts 310°
2026-04-23 19:12 33.80243 53.57423 34919 ft 464 kts 310°
2026-04-23 19:13 33.84989 53.52211 34913 ft 465 kts 310°
2026-04-23 19:13 33.89774 53.46945 34911 ft 465 kts 310°
2026-04-23 19:14 33.94553 53.41676 34912 ft 465 kts 310°
2026-04-23 19:14 33.99301 53.36433 34910 ft 466 kts 310°
2026-04-23 19:15 34.04083 53.31145 34912 ft 466 kts 310°
2026-04-23 19:15 34.08864 53.25848 34913 ft 466 kts 310°
2026-04-23 19:16 34.13650 53.20539 34915 ft 467 kts 310°
2026-04-23 19:16 34.18407 53.15253 34916 ft 467 kts 310°
2026-04-23 19:17 34.25593 53.07251 34909 ft 468 kts 310°
2026-04-23 19:17 34.30373 53.01918 34913 ft 468 kts 310°
2026-04-23 19:18 34.35158 52.96570 34915 ft 468 kts 310°
2026-04-23 19:18 34.39911 52.91250 34918 ft 468 kts 310°
2026-04-23 19:19 34.47100 52.83187 34919 ft 469 kts 310°
2026-04-23 19:20 34.54276 52.75118 34919 ft 469 kts 310°
2026-04-23 19:20 34.59060 52.69729 34924 ft 469 kts 310°
2026-04-23 19:21 34.66218 52.61650 34927 ft 470 kts 310°
2026-04-23 19:22 34.71019 52.56220 34913 ft 471 kts 310°
2026-04-23 19:22 34.78178 52.48110 34926 ft 471 kts 310°
2026-04-23 19:23 34.82975 52.42669 34923 ft 471 kts 310°
2026-04-23 19:24 34.90652 52.35186 34934 ft 481 kts 325°
2026-04-23 19:24 35.00336 52.31244 34935 ft 499 kts 340°
2026-04-23 19:25 35.13996 52.27899 34937 ft 500 kts 341°
2026-04-23 19:26 35.24186 52.25286 34943 ft 501 kts 340°
2026-04-23 19:27 35.41223 52.20843 34964 ft 502 kts 340°
2026-04-23 19:28 35.54898 52.17274 34987 ft 503 kts 340°
2026-04-23 19:29 35.65174 52.14584 34999 ft 503 kts 340°
2026-04-23 19:30 35.75433 52.11890 35020 ft 502 kts 340°
2026-04-23 19:31 35.85677 52.09194 35024 ft 501 kts 340°
2026-04-23 19:31 35.92459 52.07404 35021 ft 501 kts 341°
2026-04-23 19:32 35.99273 52.05603 35003 ft 501 kts 341°
2026-04-23 19:32 36.06087 52.03801 34990 ft 500 kts 341°
2026-04-23 19:33 36.12887 52.01998 34977 ft 498 kts 341°
2026-04-23 19:33 36.23073 51.99290 34948 ft 498 kts 341°
2026-04-23 19:34 36.28682 51.97804 34969 ft 496 kts 341°
2026-04-23 19:35 36.39924 51.94793 34928 ft 497 kts 341°
2026-04-23 19:35 36.45607 51.93279 34882 ft 498 kts 341°
2026-04-23 19:36 36.52389 51.91468 34867 ft 499 kts 341°
2026-04-23 19:36 36.59152 51.89658 34851 ft 499 kts 341°
2026-04-23 19:37 36.65860 51.87550 34833 ft 494 kts 334°
2026-04-23 19:37 36.72089 51.84153 34814 ft 486 kts 327°
2026-04-23 19:38 36.78088 51.80273 34817 ft 486 kts 326°
2026-04-23 19:38 36.84101 51.76397 34812 ft 486 kts 327°
2026-04-23 19:39 36.90128 51.72556 34812 ft 487 kts 327°
2026-04-23 19:39 36.96175 51.68717 34815 ft 487 kts 327°
2026-04-23 19:40 37.02177 51.64902 34813 ft 487 kts 327°
2026-04-23 19:40 37.08217 51.61052 34815 ft 487 kts 327°
2026-04-23 19:41 37.14252 51.57198 34815 ft 487 kts 327°
2026-04-23 19:41 37.20292 51.53333 34797 ft 487 kts 327°
2026-04-23 19:42 37.26328 51.49465 34823 ft 486 kts 327°
2026-04-23 19:42 37.32304 51.45628 34813 ft 486 kts 327°
2026-04-23 19:43 37.38323 51.41756 34815 ft 485 kts 327°
2026-04-23 19:43 37.44328 51.37886 34825 ft 485 kts 327°
2026-04-23 19:44 37.50330 51.34011 34819 ft 484 kts 327°
2026-04-23 19:44 37.56314 51.30142 34818 ft 483 kts 327°
2026-04-23 19:45 37.62303 51.26262 34821 ft 483 kts 327°
2026-04-23 19:45 37.68287 51.22379 34822 ft 482 kts 327°
2026-04-23 19:46 37.74224 51.18520 34820 ft 482 kts 327°
2026-04-23 19:46 37.80187 51.14637 34821 ft 482 kts 327°
2026-04-23 19:47 37.86156 51.10746 34822 ft 482 kts 327°
2026-04-23 19:47 37.92118 51.06854 34826 ft 482 kts 327°
2026-04-23 19:48 37.98176 51.03335 34821 ft 487 kts 337°
2026-04-23 19:48 38.04890 51.01657 34831 ft 498 kts 351°
2026-04-23 19:49 38.11867 51.01631 34841 ft 503 kts 355°
2026-04-23 19:49 38.18877 51.01821 34840 ft 504 kts 355°
2026-04-23 19:50 38.25900 51.01976 34844 ft 504 kts 355°
2026-04-23 19:50 38.32925 51.02081 34849 ft 505 kts 354°
2026-04-23 19:51 38.39906 51.02167 34837 ft 505 kts 355°
2026-04-23 19:51 38.46948 51.02253 34845 ft 506 kts 355°
2026-04-23 19:52 38.53996 51.02342 34851 ft 506 kts 355°
2026-04-23 19:52 38.61047 51.02434 34852 ft 506 kts 355°
2026-04-23 19:53 38.68058 51.02525 34855 ft 507 kts 355°
2026-04-23 19:53 38.75116 51.02617 34852 ft 507 kts 355°
2026-04-23 19:54 38.82173 51.02709 34853 ft 507 kts 355°
2026-04-23 19:54 38.89229 51.02801 34853 ft 507 kts 355°
2026-04-23 19:55 38.96281 51.02893 34850 ft 506 kts 354°
2026-04-23 19:55 39.03332 51.02985 34848 ft 506 kts 354°
2026-04-23 19:56 39.10322 51.03077 34847 ft 505 kts 354°
2026-04-23 19:56 39.17357 51.03169 34850 ft 505 kts 354°
2026-04-23 19:57 39.24383 51.03261 34852 ft 505 kts 354°
2026-04-23 19:57 39.31416 51.03354 34854 ft 505 kts 354°
2026-04-23 19:58 39.38431 51.03446 34849 ft 505 kts 354°
2026-04-23 19:58 39.45470 51.03539 34855 ft 505 kts 354°
2026-04-23 19:59 39.52460 51.03632 34855 ft 505 kts 354°
2026-04-23 19:59 39.59503 51.03726 34861 ft 505 kts 354°
2026-04-23 20:00 39.66535 51.03820 34861 ft 505 kts 354°
2026-04-23 20:00 39.73550 51.03913 34862 ft 505 kts 354°
2026-04-23 20:01 39.80618 51.04008 34865 ft 505 kts 354°
2026-04-23 20:01 39.87630 51.04102 34866 ft 505 kts 354°
2026-04-23 20:02 39.94663 51.04196 34866 ft 505 kts 354°
2026-04-23 20:02 40.01671 51.04291 34865 ft 505 kts 354°
2026-04-23 20:03 40.08734 51.04386 34866 ft 504 kts 354°
2026-04-23 20:03 40.15714 51.04481 34852 ft 504 kts 354°
2026-04-23 20:04 40.22758 51.04576 34853 ft 504 kts 354°
2026-04-23 20:04 40.29761 51.04671 34866 ft 503 kts 354°
2026-04-23 20:05 40.36745 51.04766 34860 ft 503 kts 354°
2026-04-23 20:05 40.43776 51.04862 34860 ft 503 kts 354°
2026-04-23 20:06 40.50744 51.04957 34861 ft 503 kts 354°
2026-04-23 20:06 40.57719 51.05053 34862 ft 503 kts 354°
2026-04-23 20:07 40.64739 51.05149 34859 ft 502 kts 355°
2026-04-23 20:07 40.71718 51.05245 34861 ft 502 kts 355°
2026-04-23 20:08 40.78710 51.05342 34859 ft 502 kts 355°
2026-04-23 20:08 40.85679 51.05439 34859 ft 502 kts 355°
2026-04-23 20:09 40.92686 51.05536 34860 ft 502 kts 355°
2026-04-23 20:09 40.99695 51.05633 34860 ft 502 kts 355°
2026-04-23 20:10 41.05470 51.05714 34858 ft 503 kts 355°
2026-04-23 20:10 41.13651 51.05829 34858 ft 503 kts 355°
2026-04-23 20:11 41.20620 51.05927 34856 ft 503 kts 355°
2026-04-23 20:11 41.27628 51.06027 34853 ft 503 kts 355°
2026-04-23 20:12 41.34647 51.06128 34856 ft 503 kts 355°
2026-04-23 20:12 41.41649 51.06229 34852 ft 503 kts 354°
2026-04-23 20:13 41.48619 51.06333 34853 ft 503 kts 355°
2026-04-23 20:13 41.55631 51.06440 34850 ft 503 kts 354°
2026-04-23 20:14 41.62620 51.06541 34852 ft 502 kts 355°
2026-04-23 20:14 41.69592 51.06658 34844 ft 502 kts 355°
2026-04-23 20:15 41.76558 51.06788 34844 ft 501 kts 355°
2026-04-23 20:15 41.83522 51.06920 34849 ft 501 kts 355°
2026-04-23 20:16 41.90491 51.07052 34848 ft 500 kts 355°
2026-04-23 20:16 41.97428 51.07185 34846 ft 500 kts 355°
2026-04-23 20:17 42.04416 51.07319 34846 ft 499 kts 355°
2026-04-23 20:17 42.11346 51.07457 34847 ft 499 kts 355°
2026-04-23 20:18 42.18286 51.07590 34847 ft 499 kts 355°
2026-04-23 20:18 42.25232 51.07690 34848 ft 499 kts 355°
2026-04-23 20:19 42.32139 51.07777 34846 ft 499 kts 355°
2026-04-23 20:19 42.39102 51.07877 34844 ft 500 kts 355°
2026-04-23 20:20 42.46030 51.07983 34842 ft 500 kts 355°
2026-04-23 20:20 42.53000 51.08091 34845 ft 500 kts 355°
2026-04-23 20:21 42.59992 51.08199 34841 ft 501 kts 355°
2026-04-23 20:21 42.65815 51.08291 34845 ft 501 kts 355°
2026-04-23 20:22 42.73907 51.08420 34838 ft 501 kts 355°
2026-04-23 20:22 42.80869 51.08535 34838 ft 501 kts 355°
2026-04-23 20:23 42.87823 51.08594 34837 ft 499 kts 353°
2026-04-23 20:23 42.93634 51.08453 34835 ft 499 kts 353°
2026-04-23 20:24 43.00552 51.08242 34835 ft 498 kts 353°
2026-04-23 20:24 43.07470 51.08068 34830 ft 498 kts 353°
2026-04-23 20:25 43.14426 51.07919 34835 ft 497 kts 353°
2026-04-23 20:25 43.21310 51.07778 34834 ft 497 kts 353°
2026-04-23 20:26 43.28242 51.07633 34823 ft 496 kts 352°
2026-04-23 20:26 43.35137 51.07486 34827 ft 496 kts 352°
2026-04-23 20:27 43.42040 51.07339 34831 ft 495 kts 352°
2026-04-23 20:27 43.48923 51.07193 34831 ft 495 kts 352°
2026-04-23 20:28 43.55803 51.07047 34825 ft 495 kts 352°
2026-04-23 20:28 43.62697 51.06901 34821 ft 495 kts 352°
2026-04-23 20:29 43.69572 51.06757 34820 ft 496 kts 352°
2026-04-23 20:29 43.76468 51.06615 34814 ft 496 kts 352°
2026-04-23 20:30 43.83396 51.06469 34810 ft 497 kts 352°
2026-04-23 20:30 43.93816 51.07823 34819 ft 507 kts
2026-04-23 20:31 44.00768 51.09609 34818 ft 508 kts
2026-04-23 20:31 44.07731 51.11387 34824 ft 509 kts
2026-04-23 20:32 44.14709 51.13122 34830 ft 509 kts
2026-04-23 20:32 44.21656 51.14835 34836 ft 510 kts
2026-04-23 20:33 44.28674 51.16569 34829 ft 510 kts
2026-04-23 20:33 44.35627 51.18296 34842 ft 511 kts
2026-04-23 20:34 44.42643 51.20043 34822 ft 512 kts
2026-04-23 20:34 44.49671 51.21798 34823 ft 512 kts
2026-04-23 20:35 44.56685 51.23555 34829 ft 512 kts
2026-04-23 20:35 44.63685 51.25313 34824 ft 512 kts
2026-04-23 20:36 44.70708 51.27085 34826 ft 512 kts
2026-04-23 20:36 44.77688 51.28851 34830 ft 512 kts
2026-04-23 20:37 44.84732 51.30540 34831 ft 511 kts
2026-04-23 20:37 44.91797 51.31952 34821 ft 510 kts
2026-04-23 20:38 44.98794 51.33339 34830 ft 511 kts
2026-04-23 20:38 45.05840 51.34791 34829 ft 511 kts
2026-04-23 20:39 45.12877 51.36271 34830 ft 512 kts
2026-04-23 20:39 45.19905 51.37754 34829 ft 512 kts
2026-04-23 20:40 45.26955 51.39241 34831 ft 512 kts
2026-04-23 20:40 45.34006 51.40732 34830 ft 513 kts
2026-04-23 20:41 45.41046 51.42224 34831 ft 513 kts
2026-04-23 20:41 45.48141 51.43733 34831 ft 513 kts
2026-04-23 20:42 45.55206 51.45241 34840 ft 513 kts
2026-04-23 20:42 45.62233 51.46750 34839 ft 513 kts
2026-04-23 20:43 45.69297 51.48263 34842 ft 514 kts
2026-04-23 20:43 45.76370 51.49768 34841 ft 514 kts
2026-04-23 20:44 45.83432 51.51281 34843 ft 514 kts
2026-04-23 20:44 45.90540 51.52818 34844 ft 515 kts
2026-04-23 20:45 45.97630 51.54358 34846 ft 515 kts
2026-04-23 20:45 46.04684 51.55894 34850 ft 515 kts
2026-04-23 20:46 46.11784 51.57444 34849 ft 516 kts
2026-04-23 20:46 46.18870 51.58995 34861 ft 516 kts
2026-04-23 20:47 46.25963 51.60553 34859 ft 517 kts
2026-04-23 20:47 46.33092 51.62125 34855 ft 518 kts
2026-04-23 20:48 46.40206 51.63702 34858 ft 518 kts
2026-04-23 20:48 46.47355 51.65273 34865 ft 519 kts
2026-04-23 20:49 46.54484 51.66822 34866 ft 520 kts
2026-04-23 20:49 46.61652 51.68394 34869 ft 521 kts
2026-04-23 20:50 46.68830 51.69981 34871 ft 522 kts
2026-04-23 20:50 46.76018 51.71578 34871 ft 522 kts
2026-04-23 20:51 46.83231 51.73184 34882 ft 523 kts
2026-04-23 20:51 46.90395 51.74784 34886 ft 524 kts
2026-04-23 20:52 46.97626 51.76406 34892 ft 524 kts
2026-04-23 20:52 47.04803 51.78025 34902 ft 525 kts
2026-04-23 20:53 47.12046 51.79637 34888 ft 524 kts 359°
2026-04-23 20:53 47.19198 51.80089 34892 ft 512 kts 349°
2026-04-23 20:54 47.26327 51.79567 34890 ft 511 kts 348°
2026-04-23 20:54 47.33417 51.79044 34891 ft 512 kts 349°
2026-04-23 20:55 47.40585 51.78593 34894 ft 514 kts 349°
2026-04-23 20:55 47.47723 51.78176 34897 ft 515 kts 349°
2026-04-23 20:56 47.54854 51.77758 34890 ft 516 kts 349°
2026-04-23 20:56 47.62042 51.77330 34890 ft 516 kts 349°
2026-04-23 20:57 47.69217 51.76902 34894 ft 517 kts 349°
2026-04-23 20:57 47.76431 51.76473 34894 ft 518 kts 349°
2026-04-23 20:58 47.83644 51.76047 34895 ft 519 kts 349°
2026-04-23 20:58 47.90890 51.75596 34897 ft 520 kts 349°
2026-04-23 20:59 47.98088 51.75127 34900 ft 521 kts 349°
2026-04-23 20:59 48.05376 51.74661 34901 ft 522 kts 349°
2026-04-23 21:00 48.12629 51.74204 34900 ft 523 kts 349°
2026-04-23 21:00 48.19895 51.73748 34900 ft 523 kts 349°
2026-04-23 21:01 48.27184 51.73289 34902 ft 524 kts 350°
2026-04-23 21:01 48.34457 51.72830 34903 ft 525 kts 350°
2026-04-23 21:02 48.41756 51.72367 34899 ft 525 kts 350°
2026-04-23 21:02 48.49058 51.71903 34893 ft 526 kts 350°
2026-04-23 21:03 48.56340 51.71439 34898 ft 526 kts 350°
2026-04-23 21:03 48.63672 51.70971 34904 ft 527 kts 350°
2026-04-23 21:04 48.70997 51.70503 34899 ft 527 kts 350°
2026-04-23 21:04 48.78346 51.70032 34896 ft 528 kts 350°
2026-04-23 21:05 48.85699 51.69560 34894 ft 529 kts 350°
2026-04-23 21:05 48.93044 51.69091 34895 ft 529 kts 350°
2026-04-23 21:06 49.00386 51.68623 34894 ft 530 kts 350°
2026-04-23 21:06 49.07782 51.68133 34896 ft 530 kts 350°
2026-04-23 21:07 49.13937 51.67714 34889 ft 531 kts 350°
2026-04-23 21:07 49.22517 51.67141 34876 ft 532 kts 350°
2026-04-23 21:08 49.28705 51.66735 34878 ft 532 kts 350°
2026-04-23 21:08 49.36111 51.66249 34881 ft 532 kts 351°
2026-04-23 21:09 49.43493 51.65762 34876 ft 533 kts 351°
2026-04-23 21:09 49.50890 51.65272 34878 ft 534 kts 351°
2026-04-23 21:10 49.58329 51.64778 34873 ft 534 kts 351°
2026-04-23 21:10 49.65761 51.64282 34870 ft 535 kts 351°
2026-04-23 21:11 49.73175 51.63787 34868 ft 535 kts 351°
2026-04-23 21:11 49.80629 51.63288 34864 ft 535 kts 351°
2026-04-23 21:12 49.88084 51.62787 34861 ft 535 kts 351°
2026-04-23 21:12 49.95528 51.62286 34856 ft 536 kts 351°
2026-04-23 21:13 50.02978 51.61783 34853 ft 536 kts 351°
2026-04-23 21:13 50.10410 51.61280 34852 ft 536 kts 351°
2026-04-23 21:14 50.17814 51.60778 34850 ft 535 kts 351°
2026-04-23 21:14 50.25256 51.60274 34843 ft 535 kts 352°
2026-04-23 21:15 50.32728 51.59768 34841 ft 535 kts 352°
2026-04-23 21:15 50.40142 51.59269 34836 ft 535 kts 352°
2026-04-23 21:16 50.47588 51.58759 34835 ft 535 kts 352°
2026-04-23 21:16 50.55047 51.58265 34827 ft 535 kts 352°
2026-04-23 21:17 50.62445 51.57788 34832 ft 535 kts 352°
2026-04-23 21:17 50.69883 51.57310 34825 ft 535 kts 352°
2026-04-23 21:18 50.77344 51.56827 34821 ft 535 kts 352°
2026-04-23 21:18 50.84804 51.56343 34820 ft 535 kts 352°
2026-04-23 21:19 50.92222 51.55862 34814 ft 535 kts 352°
2026-04-23 21:19 50.99661 51.55383 34811 ft 535 kts 353°
2026-04-23 21:20 51.07127 51.54899 34813 ft 535 kts 353°
2026-04-23 21:20 51.14350 51.53124 34809 ft 523 kts 336°
2026-04-23 21:21 51.20897 51.48363 34812 ft 508 kts 321°
2026-04-23 21:21 51.26686 51.42051 34810 ft 507 kts 320°
2026-04-23 21:22 51.32535 51.35663 34810 ft 508 kts 320°
2026-04-23 21:22 51.38408 51.29400 34805 ft 510 kts 321°
2026-04-23 21:23 51.44312 51.23102 34798 ft 511 kts 321°
2026-04-23 21:23 51.50259 51.16776 34799 ft 512 kts 321°
2026-04-23 21:24 51.56194 51.10505 34792 ft 513 kts 321°
2026-04-23 21:24 51.62190 51.04139 34796 ft 513 kts 322°
2026-04-23 21:25 51.68456 50.98684 34798 ft 519 kts 332°
2026-04-23 21:25 51.75330 50.95003 34787 ft 524 kts 341°
2026-04-23 21:26 51.82418 50.92113 34784 ft 525 kts 341°
2026-04-23 21:26 51.89487 50.89150 34777 ft 524 kts 341°
2026-04-23 21:27 51.96530 50.86096 34770 ft 524 kts 341°
2026-04-23 21:27 52.03594 50.83059 34770 ft 524 kts 341°
2026-04-23 21:28 52.10646 50.80048 34762 ft 524 kts 341°
2026-04-23 21:28 52.17684 50.77036 34761 ft 523 kts 341°
2026-04-23 21:29 52.24707 50.74018 34758 ft 523 kts 341°
2026-04-23 21:29 52.31749 50.70980 34757 ft 522 kts 341°
2026-04-23 21:30 52.38784 50.67937 34747 ft 522 kts 341°
2026-04-23 21:30 52.45813 50.64891 34748 ft 522 kts 341°
2026-04-23 21:31 52.52826 50.61842 34745 ft 522 kts 341°
2026-04-23 21:31 52.59842 50.58755 34742 ft 521 kts 341°
2026-04-23 21:32 52.66819 50.55671 34739 ft 521 kts 341°
2026-04-23 21:32 52.73814 50.52552 34737 ft 521 kts 341°
2026-04-23 21:33 52.80796 50.49389 34730 ft 521 kts 341°
2026-04-23 21:33 52.87800 50.46244 34729 ft 521 kts 341°
2026-04-23 21:34 52.94798 50.43120 34728 ft 521 kts 341°
2026-04-23 21:34 53.01796 50.39992 34720 ft 520 kts 341°
2026-04-23 21:35 53.08776 50.36859 34719 ft 520 kts 341°
2026-04-23 21:35 53.15765 50.33709 34716 ft 520 kts 341°
2026-04-23 21:36 53.26245 50.28967 34704 ft 520 kts 341°
2026-04-23 21:37 53.33236 50.25792 34702 ft 520 kts 341°
2026-04-23 21:37 53.40205 50.22619 34702 ft 519 kts 341°
2026-04-23 21:38 53.47175 50.19440 34702 ft 519 kts 341°
2026-04-23 21:38 53.54109 50.16317 34701 ft 519 kts 343°
2026-04-23 21:39 53.61141 50.13466 34701 ft 520 kts 343°
2026-04-23 21:39 53.68194 50.10664 34698 ft 519 kts 343°
2026-04-23 21:40 53.75197 50.07831 34687 ft 519 kts 343°
2026-04-23 21:40 53.82229 50.04950 34682 ft 519 kts 343°
2026-04-23 21:41 53.89223 50.02077 34673 ft 519 kts 343°
2026-04-23 21:41 53.96255 49.99188 34667 ft 519 kts 343°
2026-04-23 21:42 54.03248 49.96299 34668 ft 519 kts 343°
2026-04-23 21:42 54.10264 49.93346 34662 ft 519 kts 343°
2026-04-23 21:43 54.17300 49.90367 34657 ft 519 kts 343°
2026-04-23 21:43 54.24302 49.87413 34656 ft 519 kts 343°
2026-04-23 21:44 54.31282 49.84464 34654 ft 519 kts 343°
2026-04-23 21:44 54.38339 49.81801 34645 ft 520 kts 348°
2026-04-23 21:45 54.45541 49.80076 34651 ft 521 kts 350°
2026-04-23 21:45 54.52680 49.78448 34644 ft 521 kts 349°
2026-04-23 21:46 54.59903 49.76719 34639 ft 521 kts 349°
2026-04-23 21:46 54.67080 49.74970 34632 ft 521 kts 349°
2026-04-23 21:47 54.74233 49.73137 34633 ft 519 kts 346°
2026-04-23 21:47 54.81119 49.69765 34628 ft 516 kts 337°
2026-04-23 21:48 54.87847 49.65506 34621 ft 516 kts 337°
2026-04-23 21:48 54.94613 49.61266 34618 ft 516 kts 337°
2026-04-23 21:49 55.01367 49.57122 34623 ft 516 kts 338°
2026-04-23 21:49 55.08169 49.52959 34603 ft 517 kts 338°
2026-04-23 21:50 55.14919 49.48798 34608 ft 516 kts 337°
2026-04-23 21:50 55.21811 49.45192 34608 ft 518 kts 343°
2026-04-23 21:51 55.28819 49.42208 34604 ft 518 kts 343°
2026-04-23 21:51 55.35808 49.39135 34589 ft 517 kts 343°
2026-04-23 21:52 55.42950 49.37642 34595 ft 521 kts 358°
2026-04-23 21:52 55.50183 49.38965 34606 ft 525 kts
2026-04-23 21:53 55.57372 49.41533 34596 ft 526 kts
2026-04-23 21:53 55.64559 49.44020 34590 ft 527 kts
2026-04-23 21:54 55.71724 49.46388 34587 ft 527 kts
2026-04-23 21:54 55.78941 49.48765 34584 ft 527 kts
2026-04-23 21:55 55.86160 49.51165 34583 ft 527 kts
2026-04-23 21:55 55.93375 49.53587 34574 ft 527 kts
2026-04-23 21:56 56.00555 49.56010 34575 ft 526 kts
2026-04-23 21:56 56.07737 49.58442 34570 ft 526 kts
2026-04-23 21:57 56.13744 49.60482 34573 ft 526 kts
2026-04-23 21:57 56.20957 49.62940 34572 ft 525 kts
2026-04-23 21:58 56.28087 49.65380 34565 ft 525 kts
2026-04-23 21:58 56.35284 49.67853 34566 ft 525 kts
2026-04-23 21:59 56.42467 49.70331 34563 ft 525 kts
2026-04-23 21:59 56.49636 49.72814 34565 ft 525 kts
2026-04-23 22:00 56.60354 49.76547 34562 ft 525 kts
2026-04-23 22:00 56.67542 49.79068 34562 ft 525 kts
2026-04-23 22:01 56.74722 49.81596 34561 ft 525 kts
2026-04-23 22:01 56.81910 49.84108 34560 ft 526 kts
2026-04-23 22:02 56.89097 49.86621 34561 ft 526 kts
2026-04-23 22:02 56.96292 49.89170 34553 ft 526 kts
2026-04-23 22:03 57.03465 49.91711 34563 ft 526 kts
2026-04-23 22:03 57.10637 49.94246 34562 ft 526 kts
2026-04-23 22:04 57.17840 49.96814 34559 ft 526 kts
2026-04-23 22:04 57.25028 49.99401 34554 ft 526 kts
2026-04-23 22:05 57.32209 50.01999 34555 ft 526 kts
2026-04-23 22:05 57.39375 50.04600 34557 ft 526 kts
2026-04-23 22:06 57.46553 50.07215 34549 ft 526 kts
2026-04-23 22:06 57.53738 50.09844 34556 ft 526 kts
2026-04-23 22:07 57.60919 50.12483 34555 ft 526 kts
2026-04-23 22:07 57.68099 50.15132 34554 ft 526 kts
2026-04-23 22:08 57.75240 50.17777 34552 ft 526 kts
2026-04-23 22:08 57.82414 50.20446 34552 ft 526 kts
2026-04-23 22:09 57.89608 50.23134 34559 ft 526 kts
2026-04-23 22:09 57.96784 50.25828 34553 ft 526 kts
2026-04-23 22:10 58.03936 50.28527 34553 ft 526 kts
2026-04-23 22:10 58.11107 50.31251 34554 ft 526 kts
2026-04-23 22:11 58.18318 50.34003 34553 ft 527 kts
2026-04-23 22:11 58.25469 50.36851 34552 ft 527 kts 10°
2026-04-23 22:12 58.29069 50.38308 34558 ft 527 kts 10°
2026-04-23 22:12 58.40063 50.42766 34552 ft 527 kts 10°
2026-04-23 22:13 58.47244 50.45686 34547 ft 527 kts 10°
2026-04-23 22:13 58.54419 50.48620 34548 ft 528 kts 10°
2026-04-23 22:14 58.61639 50.51488 34550 ft 528 kts
2026-04-23 22:14 58.68847 50.54033 34548 ft 527 kts
2026-04-23 22:15 58.76037 50.56585 34548 ft 528 kts
2026-04-23 22:15 58.83298 50.59245 34552 ft 528 kts
2026-04-23 22:16 58.90475 50.61905 34549 ft 528 kts
2026-04-23 22:16 58.97729 50.64523 34552 ft 528 kts
2026-04-23 22:17 59.04928 50.66946 34547 ft 528 kts
2026-04-23 22:17 59.12157 50.69580 34548 ft 528 kts
2026-04-23 22:18 59.19355 50.72257 34545 ft 528 kts
2026-04-23 22:18 59.26593 50.74912 34546 ft 528 kts
2026-04-23 22:19 59.33834 50.76956 34538 ft 527 kts
2026-04-23 22:19 59.41120 50.79041 34543 ft 528 kts
2026-04-23 22:20 59.48388 50.81414 34540 ft 528 kts
2026-04-23 22:20 59.55616 50.83780 34529 ft 528 kts
2026-04-23 22:21 59.62832 50.86071 34539 ft 527 kts
2026-04-23 22:21 59.70128 50.87933 34522 ft 527 kts
2026-04-23 22:22 59.77399 50.89684 34523 ft 527 kts
2026-04-23 22:22 59.84699 50.91552 34525 ft 527 kts
2026-04-23 22:23 59.91927 50.93457 34524 ft 527 kts
2026-04-23 22:23 59.99228 50.95373 34524 ft 526 kts
2026-04-23 22:24 60.06413 50.97853 34516 ft 527 kts
2026-04-23 22:24 60.13628 51.00787 34521 ft 527 kts
2026-04-23 22:25 60.20807 51.03712 34516 ft 527 kts
2026-04-23 22:25 60.27990 51.06587 34511 ft 527 kts
2026-04-23 22:26 60.35211 51.09476 34507 ft 527 kts
2026-04-23 22:26 60.42362 51.12364 34509 ft 527 kts
2026-04-23 22:27 60.49567 51.15271 34508 ft 527 kts
2026-04-23 22:27 60.56761 51.18155 34500 ft 527 kts
2026-04-23 22:28 60.63937 51.21061 34499 ft 527 kts
2026-04-23 22:28 60.71126 51.24006 34495 ft 527 kts
2026-04-23 22:29 60.78340 51.26642 34494 ft 525 kts
2026-04-23 22:29 60.85560 51.26313 34496 ft 521 kts 350°
2026-04-23 22:30 60.92605 51.22928 34485 ft 517 kts 341°
2026-04-23 22:30 60.99538 51.19089 34487 ft 518 kts 343°
2026-04-23 22:31 61.06540 51.15426 34484 ft 519 kts 343°
2026-04-23 22:31 61.13524 51.11799 34480 ft 519 kts 343°
2026-04-23 22:32 61.20571 51.08101 34472 ft 519 kts 343°
2026-04-23 22:32 61.27534 51.04416 34469 ft 520 kts 343°
2026-04-23 22:33 61.33372 51.01312 34463 ft 520 kts 343°
2026-04-23 22:33 61.41561 50.96940 34454 ft 520 kts 343°
2026-04-23 22:34 61.47412 50.93806 34451 ft 519 kts 343°
2026-04-23 22:34 61.54402 50.90047 34452 ft 519 kts 343°
2026-04-23 22:35 61.61409 50.86269 34453 ft 519 kts 343°
2026-04-23 22:35 61.68400 50.82493 34451 ft 519 kts 343°
2026-04-23 22:36 61.75414 50.78799 34449 ft 519 kts 343°
2026-04-23 22:36 61.82401 50.75131 34442 ft 519 kts 343°
2026-04-23 22:37 61.89423 50.71420 34447 ft 519 kts 343°
2026-04-23 22:37 61.96429 50.67692 34439 ft 520 kts 343°
2026-04-23 22:38 62.03448 50.63942 34437 ft 520 kts 343°
2026-04-23 22:38 62.10427 50.60202 34428 ft 520 kts 343°
2026-04-23 22:39 62.17446 50.56419 34444 ft 520 kts 343°
2026-04-23 22:39 62.24572 50.53580 34446 ft 522 kts 351°
2026-04-23 22:40 62.31810 50.51840 34433 ft 522 kts 352°
2026-04-23 22:41 62.42655 50.49188 34441 ft 522 kts 351°
2026-04-23 22:41 62.49874 50.47315 34432 ft 522 kts 351°
2026-04-23 22:42 62.57009 50.45210 34438 ft 520 kts 347°
2026-04-23 22:42 62.64088 50.41944 34428 ft 519 kts 345°
2026-04-23 22:43 62.71139 50.38467 34439 ft 520 kts 345°
2026-04-23 22:43 62.78216 50.35056 34443 ft 521 kts 346°
2026-04-23 22:44 62.85310 50.31698 34443 ft 522 kts 346°
2026-04-23 22:44 62.92386 50.28352 34445 ft 523 kts 346°
2026-04-23 22:45 62.99505 50.24962 34442 ft 523 kts 346°
2026-04-23 22:45 63.06631 50.21545 34448 ft 524 kts 346°
2026-04-23 22:46 63.13755 50.18112 34447 ft 524 kts 346°
2026-04-23 22:46 63.20881 50.14661 34453 ft 524 kts 346°
2026-04-23 22:47 63.27956 50.11218 34450 ft 523 kts 346°
2026-04-23 22:47 63.35069 50.07740 34453 ft 523 kts 346°
2026-04-23 22:48 63.42201 50.04236 34454 ft 523 kts 346°
2026-04-23 22:48 63.49304 50.00730 34460 ft 523 kts 346°
2026-04-23 22:49 63.56412 49.97207 34462 ft 522 kts 346°
2026-04-23 22:49 63.63466 49.93701 34458 ft 522 kts 346°
2026-04-23 22:50 63.70566 49.90136 34464 ft 522 kts 346°
2026-04-23 22:50 63.77655 49.86525 34466 ft 522 kts 346°
2026-04-23 22:51 63.84748 49.82904 34468 ft 522 kts 346°
2026-04-23 22:51 63.91793 49.79306 34465 ft 522 kts 346°
2026-04-23 22:52 63.98894 49.75667 34468 ft 522 kts 346°
2026-04-23 22:52 64.05994 49.72007 34471 ft 522 kts 346°
2026-04-23 22:53 64.13108 49.68320 34468 ft 523 kts 346°
2026-04-23 22:53 64.20150 49.64653 34469 ft 523 kts 346°
2026-04-23 22:54 64.27264 49.60929 34465 ft 523 kts 346°
2026-04-23 22:54 64.34362 49.57196 34467 ft 523 kts 346°
2026-04-23 22:55 64.41457 49.53449 34466 ft 523 kts 346°
2026-04-23 22:55 64.48563 49.49683 34460 ft 523 kts 346°
2026-04-23 22:56 64.55657 49.46188 34456 ft 524 kts 348°
2026-04-23 22:56 64.62862 49.43395 34464 ft 524 kts 350°
2026-04-23 22:57 64.70072 49.40750 34456 ft 524 kts 350°
2026-04-23 22:57 64.77277 49.38041 34453 ft 524 kts 349°
2026-04-23 22:58 64.84487 49.35258 34451 ft 524 kts 349°
2026-04-23 22:58 64.91687 49.32444 34445 ft 524 kts 349°
2026-04-23 22:59 64.98845 49.29634 34437 ft 524 kts 349°
2026-04-23 22:59 65.06043 49.26797 34438 ft 524 kts 349°
2026-04-23 23:00 65.13246 49.23945 34438 ft 524 kts 349°
2026-04-23 23:00 65.20453 49.21075 34431 ft 524 kts 349°
2026-04-23 23:01 65.27598 49.18214 34426 ft 524 kts 349°
2026-04-23 23:01 65.34807 49.15311 34421 ft 524 kts 349°
2026-04-23 23:02 65.42002 49.12398 34419 ft 524 kts 349°
2026-04-23 23:02 65.49204 49.09466 34418 ft 524 kts 349°
2026-04-23 23:03 65.56357 49.06537 34409 ft 524 kts 349°
2026-04-23 23:03 65.63546 49.03577 34406 ft 524 kts 349°
2026-04-23 23:04 65.70737 49.00599 34403 ft 524 kts 349°
2026-04-23 23:04 65.77932 48.97603 34394 ft 524 kts 349°
2026-04-23 23:05 65.85139 48.94585 34395 ft 524 kts 349°
2026-04-23 23:05 65.92324 48.91559 34390 ft 524 kts 349°
2026-04-23 23:06 65.99467 48.88534 34383 ft 523 kts 349°
2026-04-23 23:06 66.06652 48.85474 34382 ft 523 kts 349°
2026-04-23 23:07 66.13821 48.82402 34365 ft 523 kts 349°
2026-04-23 23:07 66.20996 48.79311 34361 ft 523 kts 349°
2026-04-23 23:08 66.28170 48.76202 34358 ft 523 kts 349°
2026-04-23 23:08 66.35343 48.73076 34357 ft 523 kts 349°
2026-04-23 23:09 66.42463 48.69954 34349 ft 523 kts 349°
2026-04-23 23:09 66.49635 48.66790 34346 ft 523 kts 349°
2026-04-23 23:10 66.56807 48.63610 34348 ft 523 kts 349°
2026-04-23 23:10 66.63979 48.60410 34347 ft 523 kts 349°
2026-04-23 23:11 66.71142 48.57196 34337 ft 522 kts 349°
2026-04-23 23:11 66.78306 48.53962 34342 ft 522 kts 349°
2026-04-23 23:12 66.85416 48.50733 34340 ft 522 kts 349°
2026-04-23 23:12 66.92572 48.47465 34334 ft 522 kts 349°
2026-04-23 23:13 66.99722 48.44180 34336 ft 522 kts 349°
2026-04-23 23:13 67.06875 48.40874 34336 ft 522 kts 349°
2026-04-23 23:14 67.14029 48.37548 34336 ft 522 kts 349°
2026-04-23 23:14 67.21165 48.34210 34337 ft 522 kts 349°
2026-04-23 23:15 67.28271 48.30866 34336 ft 522 kts 349°
2026-04-23 23:15 67.35411 48.27487 34338 ft 522 kts 349°
2026-04-23 23:16 67.42559 48.24083 34339 ft 522 kts 349°
2026-04-23 23:16 67.49703 48.20662 34341 ft 521 kts 349°
2026-04-23 23:17 67.56846 48.17221 34346 ft 521 kts 349°
2026-04-23 23:17 67.63980 48.13764 34345 ft 521 kts 349°
2026-04-23 23:18 67.71125 48.10285 34353 ft 522 kts 349°
2026-04-23 23:18 67.78222 48.06815 34356 ft 522 kts 349°
2026-04-23 23:19 67.85353 48.03301 34356 ft 521 kts 349°
2026-04-23 23:19 67.92524 48.00309 34358 ft 521 kts 351°
2026-04-23 23:20 67.99719 47.97700 34365 ft 521 kts 351°
2026-04-23 23:20 68.06894 47.95034 34364 ft 521 kts 351°
2026-04-23 23:21 68.12858 47.92738 34365 ft 521 kts 351°
2026-04-23 23:21 68.20034 47.89932 34370 ft 520 kts 351°
2026-04-23 23:22 68.28378 47.86652 34378 ft 520 kts 351°
2026-04-23 23:22 68.34388 47.84281 34436 ft 521 kts 351°
2026-04-23 23:23 68.41578 47.81432 34384 ft 522 kts 351°
2026-04-23 23:23 68.48748 47.78583 34374 ft 523 kts 351°
2026-04-23 23:24 68.55964 47.75684 34380 ft 523 kts 351°
2026-04-23 23:24 68.63113 47.72758 34380 ft 523 kts 351°
2026-04-23 23:25 68.70318 47.69800 34381 ft 523 kts 351°
2026-04-23 23:25 68.77518 47.66847 34388 ft 523 kts 351°
2026-04-23 23:26 68.84713 47.63886 34386 ft 523 kts 351°
2026-04-23 23:26 68.91910 47.60904 34384 ft 523 kts 351°
2026-04-23 23:27 68.99051 47.57924 34390 ft 523 kts 351°
2026-04-23 23:27 69.06244 47.54901 34390 ft 522 kts 351°
2026-04-23 23:28 69.13443 47.51856 34388 ft 522 kts 351°
2026-04-23 23:28 69.20634 47.48794 34389 ft 522 kts 351°
2026-04-23 23:29 69.27824 47.45712 34388 ft 522 kts 351°
2026-04-23 23:29 69.35010 47.42612 34390 ft 522 kts 351°
2026-04-23 23:30 69.42197 47.39492 34391 ft 522 kts 351°
2026-04-23 23:30 69.49330 47.36374 34389 ft 522 kts 351°
2026-04-23 23:31 69.56508 47.33216 34392 ft 522 kts 351°
2026-04-23 23:31 69.63686 47.30038 34390 ft 522 kts 351°
2026-04-23 23:32 69.70860 47.26844 34391 ft 521 kts 351°
2026-04-23 23:32 69.78046 47.23627 34391 ft 521 kts 351°
2026-04-23 23:33 69.85211 47.20404 34395 ft 521 kts 350°
2026-04-23 23:33 69.92340 47.17136 34395 ft 521 kts 350°
2026-04-23 23:34 69.99498 47.13800 34398 ft 521 kts 350°
2026-04-23 23:34 70.06659 47.10463 34397 ft 521 kts 350°
2026-04-23 23:35 70.13813 47.07125 34394 ft 520 kts 350°
2026-04-23 23:35 70.20976 47.03764 34395 ft 520 kts 350°
2026-04-23 23:36 70.28078 47.00406 34397 ft 520 kts 350°
2026-04-23 23:36 70.35228 46.97000 34402 ft 520 kts 350°
2026-04-23 23:37 70.42386 46.93566 34400 ft 520 kts 350°
2026-04-23 23:37 70.49492 46.90133 34400 ft 520 kts 350°
2026-04-23 23:38 70.56641 46.86654 34401 ft 519 kts 350°
2026-04-23 23:38 70.63781 46.83156 34403 ft 519 kts 350°
2026-04-23 23:39 70.70918 46.79633 34404 ft 519 kts 350°
2026-04-23 23:39 70.78049 46.76088 34405 ft 519 kts 350°
2026-04-23 23:40 70.85172 46.72522 34404 ft 519 kts 350°
2026-04-23 23:40 70.92296 46.68930 34404 ft 519 kts 350°
2026-04-23 23:41 70.99393 46.65326 34412 ft 519 kts 350°
2026-04-23 23:41 71.06515 46.61683 34407 ft 519 kts 350°
2026-04-23 23:42 71.13650 46.58007 34412 ft 519 kts 350°
2026-04-23 23:42 71.20776 46.54311 34415 ft 519 kts 350°
2026-04-23 23:43 71.27892 46.50594 34414 ft 519 kts 350°
2026-04-23 23:43 71.35009 46.46857 34417 ft 519 kts 350°
2026-04-23 23:44 71.42120 46.43104 34420 ft 519 kts 350°
2026-04-23 23:44 71.49148 46.38656 34417 ft 519 kts 343°
2026-04-23 23:45 71.55868 46.30388 34417 ft 519 kts 332°
2026-04-23 23:45 71.62120 46.18957 34411 ft 519 kts 328°
2026-04-23 23:46 71.68272 46.06954 34417 ft 519 kts 328°
2026-04-23 23:46 71.74437 45.94989 34419 ft 519 kts 328°
2026-04-23 23:47 71.80621 45.83083 34409 ft 518 kts 328°
2026-04-23 23:47 71.86801 45.71160 34413 ft 518 kts 328°
2026-04-23 23:48 71.92933 45.59231 34416 ft 518 kts 328°
2026-04-23 23:48 71.99107 45.47114 34412 ft 518 kts 328°
2026-04-23 23:49 72.08329 45.28826 34418 ft 518 kts 328°
2026-04-23 23:49 72.14471 45.16527 34412 ft 518 kts 328°
2026-04-23 23:50 72.20613 45.04131 34413 ft 518 kts 328°
2026-04-23 23:50 72.26692 44.91763 34409 ft 518 kts 328°
2026-04-23 23:51 72.32824 44.79189 34410 ft 517 kts 328°
2026-04-23 23:51 72.38891 44.66649 34410 ft 517 kts 327°
2026-04-23 23:52 72.44981 44.53961 34409 ft 517 kts 327°
2026-04-23 23:52 72.51073 44.41164 34417 ft 517 kts 327°
2026-04-23 23:53 72.57143 44.28311 34410 ft 517 kts 327°
2026-04-23 23:53 72.63223 44.15331 34412 ft 517 kts 327°
2026-04-23 23:54 72.69285 44.02284 34414 ft 517 kts 327°
2026-04-23 23:54 72.75297 43.89238 34414 ft 517 kts 327°
2026-04-23 23:55 72.81336 43.76028 34414 ft 517 kts 327°
2026-04-23 23:55 72.87344 43.62776 34417 ft 517 kts 326°
2026-04-23 23:56 72.93366 43.49382 34418 ft 517 kts 326°
2026-04-23 23:56 72.99377 43.35903 34425 ft 517 kts 326°
2026-04-23 23:57 73.05385 43.22318 34427 ft 517 kts 326°
2026-04-23 23:57 73.11373 43.08667 34426 ft 517 kts 326°
2026-04-23 23:58 73.17354 42.94915 34428 ft 517 kts 326°
2026-04-23 23:58 73.23294 42.81146 34435 ft 517 kts 326°
2026-04-23 23:59 73.29271 42.67176 34437 ft 517 kts 326°
2026-04-23 23:59 73.35233 42.53127 34444 ft 517 kts 325°
2026-04-24 00:00 73.41180 42.39012 34443 ft 516 kts 325°
2026-04-24 00:00 73.47082 42.24874 34450 ft 516 kts 325°
2026-04-24 00:01 73.53025 42.10667 34453 ft 516 kts 325°
2026-04-24 00:01 73.58976 41.96419 34453 ft 516 kts 325°
2026-04-24 00:02 73.64918 41.82078 34462 ft 516 kts 325°
2026-04-24 00:02 73.70814 41.67711 34461 ft 516 kts 325°
2026-04-24 00:03 73.76735 41.53148 34469 ft 516 kts 325°
2026-04-24 00:03 73.82639 41.38497 34480 ft 516 kts 324°
2026-04-24 00:04 73.88536 41.23738 34472 ft 516 kts 324°
2026-04-24 00:04 73.94421 41.08877 34481 ft 516 kts 324°
2026-04-24 00:05 74.00306 40.93885 34486 ft 516 kts 324°
2026-04-24 00:05 74.06170 40.78810 34483 ft 516 kts 324°
2026-04-24 00:06 74.11995 40.63706 34489 ft 517 kts 324°
2026-04-24 00:06 74.17840 40.48413 34494 ft 517 kts 324°
2026-04-24 00:07 74.23678 40.33001 34496 ft 517 kts 323°
2026-04-24 00:07 74.29504 40.17486 34502 ft 517 kts 323°
2026-04-24 00:08 74.35318 40.01867 34506 ft 517 kts 323°
2026-04-24 00:08 74.41135 39.86120 34507 ft 517 kts 323°
2026-04-24 00:09 74.46931 39.70297 34507 ft 517 kts 323°
2026-04-24 00:09 74.51763 39.57166 34519 ft 516 kts 323°
2026-04-24 00:10 74.58528 39.38721 34522 ft 516 kts 323°
2026-04-24 00:10 74.63352 39.25447 34519 ft 516 kts 323°
2026-04-24 00:11 74.69145 39.09355 34527 ft 516 kts 323°
2026-04-24 00:11 74.74920 38.93150 34528 ft 516 kts 323°
2026-04-24 00:12 74.80686 38.76817 34537 ft 516 kts 322°
2026-04-24 00:12 74.86428 38.60397 34540 ft 516 kts 322°
2026-04-24 00:13 74.92164 38.43841 34537 ft 516 kts 322°
2026-04-24 00:13 74.97886 38.27166 34545 ft 516 kts 322°
2026-04-24 00:14 75.03553 38.10492 34549 ft 516 kts 322°
2026-04-24 00:14 75.09249 37.93574 34554 ft 515 kts 322°
2026-04-24 00:15 75.14933 37.76528 34557 ft 515 kts 322°
2026-04-24 00:15 75.20610 37.59336 34556 ft 515 kts 321°
2026-04-24 00:16 75.26268 37.42031 34557 ft 515 kts 321°
2026-04-24 00:16 75.31888 37.24678 34557 ft 515 kts 321°
2026-04-24 00:17 75.37514 37.07134 34564 ft 515 kts 321°
2026-04-24 00:17 75.43127 36.89457 34566 ft 515 kts 321°
2026-04-24 00:18 75.48729 36.71639 34566 ft 515 kts 321°
2026-04-24 00:18 75.54315 36.53696 34568 ft 515 kts 321°
2026-04-24 00:19 75.59885 36.35623 34570 ft 515 kts 320°
2026-04-24 00:19 75.65448 36.17393 34571 ft 515 kts 320°
2026-04-24 00:20 75.70948 35.99191 34570 ft 515 kts 320°
2026-04-24 00:20 75.76482 35.80689 34571 ft 514 kts 320°
2026-04-24 00:21 75.81991 35.62090 34569 ft 514 kts 320°
2026-04-24 00:21 75.87492 35.43335 34566 ft 514 kts 320°
2026-04-24 00:22 75.92979 35.24466 34570 ft 514 kts 319°
2026-04-24 00:22 75.98658 35.06850 34572 ft 510 kts 331°
2026-04-24 00:23 76.05186 34.96033 34580 ft 510 kts 347°
2026-04-24 00:23 76.12177 34.91105 34582 ft 510 kts 351°
2026-04-24 00:24 76.19208 34.86901 34576 ft 510 kts 351°
2026-04-24 00:24 76.26226 34.82514 34571 ft 510 kts 351°
2026-04-24 00:25 76.33254 34.77866 34576 ft 511 kts 350°
2026-04-24 00:25 76.40271 34.73096 34572 ft 510 kts 350°
2026-04-24 00:26 76.47291 34.68272 34579 ft 511 kts 350°
2026-04-24 00:26 76.54312 34.63413 34574 ft 511 kts 350°
2026-04-24 00:27 76.61284 34.58543 34576 ft 511 kts 350°
2026-04-24 00:27 76.68311 34.53585 34570 ft 511 kts 350°
2026-04-24 00:28 76.75345 34.48570 34578 ft 512 kts 350°
2026-04-24 00:28 76.82363 34.43512 34577 ft 512 kts 350°
2026-04-24 00:29 76.89399 34.38386 34581 ft 512 kts 350°
2026-04-24 00:29 76.96383 34.33244 34579 ft 512 kts 350°
2026-04-24 00:30 77.03410 34.28015 34585 ft 512 kts 349°
2026-04-24 00:30 77.10449 34.22719 34590 ft 512 kts 349°
2026-04-24 00:31 77.17476 34.17376 34591 ft 512 kts 349°
2026-04-24 00:31 77.24511 34.11967 34594 ft 512 kts 349°
2026-04-24 00:32 77.31541 34.06502 34600 ft 513 kts 349°
2026-04-24 00:32 77.38528 34.01011 34603 ft 513 kts 349°
2026-04-24 00:33 77.45605 33.95386 34610 ft 513 kts 349°
2026-04-24 00:33 77.52586 33.89776 34609 ft 513 kts 349°
2026-04-24 00:34 77.59631 33.84049 34616 ft 513 kts 349°
2026-04-24 00:34 77.66673 33.78261 34621 ft 513 kts 349°
2026-04-24 00:35 77.73713 33.72407 34624 ft 514 kts 349°
2026-04-24 00:35 77.80756 33.66482 34625 ft 514 kts 349°
2026-04-24 00:36 77.87794 33.60494 34632 ft 514 kts 349°
2026-04-24 00:36 77.94846 33.54424 34637 ft 514 kts 349°
2026-04-24 00:37 78.01889 33.48289 34641 ft 514 kts 349°
2026-04-24 00:37 78.08888 33.42121 34643 ft 515 kts 349°
2026-04-24 00:38 78.15934 33.35838 34654 ft 515 kts 349°
2026-04-24 00:38 78.23000 33.29462 34657 ft 515 kts 348°
2026-04-24 00:39 78.30020 33.23050 34658 ft 515 kts 348°
2026-04-24 00:39 78.37118 33.16488 34666 ft 516 kts 348°
2026-04-24 00:40 78.44129 33.09928 34669 ft 516 kts 348°
2026-04-24 00:40 78.51188 33.03241 34673 ft 516 kts 348°
2026-04-24 00:41 78.58262 32.96456 34679 ft 516 kts 348°
2026-04-24 00:41 78.65315 32.89608 34681 ft 516 kts 348°
2026-04-24 00:42 78.72372 32.82669 34683 ft 516 kts 348°
2026-04-24 00:42 78.79387 32.75684 34688 ft 517 kts 348°
2026-04-24 00:43 78.86444 32.68568 34695 ft 517 kts 348°
2026-04-24 00:43 78.93506 32.61356 34699 ft 517 kts 348°
2026-04-24 00:44 79.00560 32.54058 34703 ft 517 kts 348°
2026-04-24 00:44 79.07617 32.46663 34708 ft 517 kts 348°
2026-04-24 00:45 79.14669 32.39176 34712 ft 517 kts 348°
2026-04-24 00:45 79.21691 32.31623 34717 ft 517 kts 348°
2026-04-24 00:46 79.28741 32.23938 34720 ft 517 kts 348°
2026-04-24 00:46 79.35805 32.16136 34721 ft 517 kts 347°
2026-04-24 00:47 79.42854 32.08246 34731 ft 517 kts 347°
2026-04-24 00:47 79.49851 32.00309 34733 ft 517 kts 347°
2026-04-24 00:48 79.56939 31.92158 34740 ft 517 kts 347°
2026-04-24 00:48 79.63947 31.83989 34744 ft 517 kts 347°
2026-04-24 00:49 79.70983 31.75673 34745 ft 517 kts 347°
2026-04-24 00:49 79.78041 31.67217 34753 ft 517 kts 347°
2026-04-24 00:50 79.85082 31.58661 34755 ft 517 kts 347°
2026-04-24 00:50 79.92123 31.49985 34759 ft 517 kts 347°
2026-04-24 00:51 79.99161 31.41189 34770 ft 517 kts 347°
2026-04-24 00:51 80.06146 31.32334 34772 ft 517 kts 347°
2026-04-24 00:52 80.13184 31.23284 34779 ft 517 kts 347°
2026-04-24 00:52 80.20211 31.14117 34781 ft 517 kts 347°
2026-04-24 00:53 80.27239 31.04814 34790 ft 517 kts 346°
2026-04-24 00:53 80.34257 30.95388 34792 ft 517 kts 346°
2026-04-24 00:54 80.41223 30.85894 34802 ft 516 kts 346°
2026-04-24 00:54 80.48235 30.76195 34805 ft 516 kts 346°
2026-04-24 00:55 80.55246 30.66354 34813 ft 516 kts 346°
2026-04-24 00:55 80.62246 30.56379 34812 ft 516 kts 346°
2026-04-24 00:56 80.69240 30.46262 34818 ft 516 kts 346°
2026-04-24 00:56 80.76173 30.36085 34823 ft 515 kts 346°
2026-04-24 00:57 80.83153 30.25688 34831 ft 515 kts 346°
2026-04-24 00:58 80.92444 30.11634 34839 ft 515 kts 346°
2026-04-24 00:58 80.99398 30.00672 34848 ft 515 kts 343°
2026-04-24 00:59 81.06101 29.84778 34852 ft 514 kts 336°
2026-04-24 00:59 81.12664 29.66297 34855 ft 514 kts 335°
2026-04-24 01:00 81.19231 29.47662 34856 ft 515 kts 336°
2026-04-24 01:00 81.25817 29.29174 34861 ft 514 kts 336°
2026-04-24 01:01 81.32403 29.10573 34869 ft 514 kts 336°
2026-04-24 01:01 81.38965 28.91729 34881 ft 514 kts 336°
2026-04-24 01:02 81.45523 28.72549 34887 ft 514 kts 336°
2026-04-24 01:02 81.52031 28.53184 34891 ft 514 kts 335°
2026-04-24 01:03 81.58560 28.33431 34894 ft 514 kts 335°
2026-04-24 01:03 81.65083 28.13363 34903 ft 513 kts 335°
2026-04-24 01:04 81.71595 27.92983 34906 ft 513 kts 335°
2026-04-24 01:04 81.78089 27.72319 34915 ft 513 kts 335°
2026-04-24 01:05 81.84569 27.51344 34914 ft 513 kts 335°
2026-04-24 01:05 81.91039 27.30058 34921 ft 513 kts 334°
2026-04-24 01:06 81.97510 27.08409 34927 ft 513 kts 334°
2026-04-24 01:06 82.04069 26.88544 34940 ft 512 kts 339°
2026-04-24 01:07 82.10779 26.71116 34940 ft 512 kts 340°
2026-04-24 01:07 82.17459 26.53856 34943 ft 512 kts 340°
2026-04-24 01:08 82.24160 26.35910 34947 ft 512 kts 339°
2026-04-24 01:08 82.30835 26.17473 34953 ft 512 kts 339°
2026-04-24 01:09 82.37501 25.98662 34953 ft 511 kts 339°
2026-04-24 01:09 82.44157 25.79546 34963 ft 511 kts 339°
2026-04-24 01:10 82.50761 25.60236 34963 ft 511 kts 338°
2026-04-24 01:10 82.57397 25.40470 34970 ft 511 kts 338°
2026-04-24 01:11 82.64025 25.20347 34977 ft 511 kts 338°
2026-04-24 01:11 82.70643 24.99860 34979 ft 511 kts 338°
2026-04-24 01:12 82.77250 24.79006 34982 ft 511 kts 338°
2026-04-24 01:12 82.83845 24.57778 34986 ft 510 kts 337°
2026-04-24 01:13 82.90432 24.36151 34987 ft 510 kts 337°
2026-04-24 01:13 82.96949 24.14325 34992 ft 510 kts 337°
2026-04-24 01:14 83.03499 23.91941 34996 ft 510 kts 337°
2026-04-24 01:14 83.10040 23.69130 34999 ft 509 kts 336°
2026-04-24 01:15 83.16561 23.45916 34998 ft 509 kts 336°
2026-04-24 01:15 83.23068 23.22269 35005 ft 509 kts 336°
2026-04-24 01:16 83.29567 22.98156 35010 ft 509 kts 336°
2026-04-24 01:16 83.36047 22.73596 35010 ft 508 kts 335°
2026-04-24 01:17 83.42472 22.48724 35015 ft 508 kts 335°
2026-04-24 01:17 83.48915 22.23246 35020 ft 508 kts 335°
2026-04-24 01:18 83.55354 21.97223 35022 ft 508 kts 335°
2026-04-24 01:18 83.61782 21.70671 35028 ft 508 kts 334°
2026-04-24 01:19 83.68184 21.43637 35030 ft 508 kts 334°
2026-04-24 01:19 83.74572 21.16052 35035 ft 508 kts 334°
2026-04-24 01:20 83.80910 20.88068 35039 ft 508 kts 334°
2026-04-24 01:20 83.87265 20.59385 35039 ft 508 kts 333°
2026-04-24 01:21 83.93607 20.30157 35041 ft 508 kts 333°
2026-04-24 01:21 83.99925 20.00133 35050 ft 508 kts 331°
2026-04-24 01:22 84.05992 19.65228 35053 ft 508 kts 327°
2026-04-24 01:22 84.11945 19.28172 35055 ft 508 kts 327°
2026-04-24 01:23 84.17895 18.90626 35062 ft 508 kts 327°
2026-04-24 01:23 84.23833 18.52757 35062 ft 508 kts 327°
2026-04-24 01:24 84.29763 18.14181 35068 ft 508 kts 326°
2026-04-24 01:24 84.35616 17.75149 35070 ft 508 kts 326°
2026-04-24 01:25 84.41493 17.34904 35076 ft 508 kts 325°
2026-04-24 01:25 84.47343 16.93786 35076 ft 508 kts 325°
2026-04-24 01:26 84.53155 16.51858 35081 ft 508 kts 324°
2026-04-24 01:26 84.58935 16.09057 35084 ft 508 kts 324°
2026-04-24 01:27 84.64662 15.65508 35085 ft 508 kts 323°
2026-04-24 01:27 84.70384 15.20812 35092 ft 508 kts 323°
2026-04-24 01:28 84.76078 14.75119 35096 ft 508 kts 323°
2026-04-24 01:28 84.81737 14.28419 35096 ft 508 kts 322°
2026-04-24 01:29 84.87361 13.80700 35101 ft 508 kts 322°
2026-04-24 01:29 84.92957 13.31860 35107 ft 508 kts 321°
2026-04-24 01:30 84.98468 12.82374 35109 ft 508 kts 321°
2026-04-24 01:30 85.03973 12.31489 35113 ft 507 kts 320°
2026-04-24 01:31 85.09430 11.79549 35119 ft 507 kts 320°
2026-04-24 01:31 85.14849 11.26409 35115 ft 507 kts 319°
2026-04-24 01:32 85.20224 10.72108 35124 ft 507 kts 319°
2026-04-24 01:32 85.25551 10.16620 35125 ft 506 kts 318°
2026-04-24 01:33 85.30817 9.60054 35126 ft 505 kts 317°
2026-04-24 01:33 85.36008 9.02532 35132 ft 505 kts 317°
2026-04-24 01:34 85.41314 8.45792 35143 ft 504 kts 320°
2026-04-24 01:34 85.46805 7.90816 35145 ft 504 kts 321°
2026-04-24 01:35 85.52268 7.34671 35142 ft 505 kts 320°
2026-04-24 01:35 85.57657 6.76594 35146 ft 505 kts 319°
2026-04-24 01:36 85.62987 6.16709 35148 ft 505 kts 318°
2026-04-24 01:36 85.68232 5.55696 35151 ft 505 kts 317°
2026-04-24 01:37 85.73490 4.92453 35151 ft 505 kts 317°
2026-04-24 01:37 85.78634 4.28454 35151 ft 505 kts 316°
2026-04-24 01:38 85.83753 3.62528 35165 ft 505 kts 316°
2026-04-24 01:38 85.88809 2.95064 35160 ft 505 kts 315°
2026-04-24 01:39 85.93794 2.26115 35162 ft 505 kts 314°
2026-04-24 01:39 85.98732 1.55265 35168 ft 505 kts 314°
2026-04-24 01:40 86.03610 0.82621 35167 ft 505 kts 313°
2026-04-24 01:40 86.08413 0.08343 35174 ft 505 kts 312°
2026-04-24 01:41 86.13166 -0.68055 35178 ft 505 kts 311°
2026-04-24 01:41 86.17848 -1.46320 35180 ft 506 kts 310°
2026-04-24 01:42 86.22424 -2.25910 35167 ft 506 kts 310°
2026-04-24 01:42 86.26972 -3.08313 35184 ft 506 kts 309°
2026-04-24 01:43 86.31432 -3.92528 35184 ft 505 kts 308°
2026-04-24 01:43 86.35778 -4.78138 35187 ft 505 kts 307°
2026-04-24 01:44 86.39367 -5.51679 35192 ft 505 kts 307°
2026-04-24 01:44 86.44265 -6.56555 35194 ft 506 kts 306°
2026-04-24 01:45 86.47696 -7.33391 35194 ft 506 kts 305°
2026-04-24 01:45 86.51736 -8.27765 35194 ft 505 kts 304°
2026-04-24 01:46 86.55672 -9.24147 35199 ft 505 kts 303°
2026-04-24 01:46 86.59506 -10.22646 35200 ft 505 kts 302°
2026-04-24 01:47 86.63224 -11.22989 35205 ft 505 kts 301°
2026-04-24 01:47 86.66848 -12.25869 35207 ft 505 kts 300°
2026-04-24 01:48 86.70379 -13.31464 35206 ft 506 kts 299°
2026-04-24 01:48 86.73787 -14.39042 35213 ft 507 kts 298°
2026-04-24 01:49 86.77094 -15.49361 35214 ft 508 kts 297°
2026-04-24 01:49 86.80273 -16.61737 35216 ft 507 kts 296°
2026-04-24 01:50 86.83299 -17.75262 35224 ft 506 kts 295°
2026-04-24 01:50 86.86222 -18.91854 35224 ft 506 kts 294°
2026-04-24 01:51 86.89010 -20.10513 35224 ft 505 kts 292°
2026-04-24 01:51 86.90344 -20.70211 35381 ft 499 kts 291°
2026-04-24 01:51 86.91619 -21.29238 35850 ft 488 kts 291°
2026-04-24 01:51 86.92839 -21.87769 36277 ft 480 kts 290°
2026-04-24 01:52 86.94000 -22.45389 36753 ft 472 kts 289°
2026-04-24 01:52 86.95114 -23.02649 37203 ft 464 kts 289°
2026-04-24 01:52 86.96183 -23.59574 37679 ft 457 kts 288°
2026-04-24 01:52 86.97206 -24.16017 38173 ft 448 kts 287°
2026-04-24 01:53 86.98166 -24.70775 38639 ft 440 kts 287°
2026-04-24 01:53 86.99091 -25.25454 39040 ft 432 kts 286°
2026-04-24 01:53 86.99981 -25.79931 39089 ft 432 kts 285°
2026-04-24 01:53 87.00859 -26.35639 38848 ft 441 kts 285°
2026-04-24 01:54 87.01720 -26.92427 38699 ft 446 kts 284°
2026-04-24 01:54 87.03373 -28.08238 38657 ft 452 kts 283°
2026-04-24 01:55 87.04929 -29.27464 38491 ft 460 kts 282°
2026-04-24 01:55 87.06370 -30.49167 38346 ft 469 kts 281°
2026-04-24 01:56 87.07712 -31.75392 38256 ft 475 kts 280°
2026-04-24 01:56 87.08917 -33.03434 38256 ft 479 kts 279°
2026-04-24 01:57 87.09978 -34.32764 38260 ft 483 kts 277°
2026-04-24 01:57 87.10906 -35.65502 38256 ft 484 kts 276°
2026-04-24 01:58 87.11670 -36.97418 38256 ft 484 kts 275°
2026-04-24 01:58 87.12283 -38.30660 38266 ft 485 kts 274°
2026-04-24 01:59 87.12742 -39.65134 38265 ft 485 kts 272°
2026-04-24 01:59 87.13042 -40.99232 38263 ft 484 kts 271°
2026-04-24 02:00 87.13184 -42.34003 38271 ft 486 kts 270°
2026-04-24 02:00 87.13169 -43.68914 38272 ft 485 kts 268°
2026-04-24 02:01 87.12995 -45.03476 38280 ft 486 kts 267°
2026-04-24 02:01 87.12663 -46.38163 38278 ft 485 kts 265°
2026-04-24 02:02 87.12174 -47.72333 38285 ft 486 kts 264°
2026-04-24 02:02 87.11531 -49.05289 38287 ft 486 kts 263°
2026-04-24 02:03 87.10270 -51.04666 38291 ft 486 kts 261°
2026-04-24 02:03 87.09239 -52.36326 38296 ft 485 kts 260°
2026-04-24 02:04 87.08053 -53.67260 38300 ft 487 kts 258°
2026-04-24 02:04 87.06713 -54.97622 38295 ft 488 kts 257°
2026-04-24 02:05 87.05225 -56.26617 38307 ft 489 kts 256°
2026-04-24 02:05 87.04034 -57.21036 38307 ft 491 kts 255°
2026-04-24 02:06 87.03322 -57.74211 38298 ft 492 kts 254°
2026-04-24 02:06 87.02482 -58.33488 38355 ft 492 kts 254°
2026-04-24 02:07 87.02098 -58.63319 38252 ft 495 kts 258°
2026-04-24 02:07 87.01868 -58.89486 37958 ft 501 kts 264°
2026-04-24 02:07 87.01831 -59.34434 37045 ft 518 kts 275°
2026-04-24 02:07 87.01937 -60.01974 37322 ft 497 kts 262°
2026-04-24 02:08 87.01048 -60.65047 37492 ft 487 kts 242°
2026-04-24 02:08 86.99109 -61.17564 37751 ft 480 kts 224°
2026-04-24 02:08 86.96731 -61.61567 37973 ft 474 kts 225°
2026-04-24 02:08 86.94484 -62.06696 38132 ft 473 kts 229°
2026-04-24 02:09 86.90537 -63.04280 38290 ft 475 kts 236°
2026-04-24 02:09 86.86973 -64.07795 38333 ft 479 kts 238°
2026-04-24 02:10 86.83448 -65.10618 38344 ft 483 kts 237°
2026-04-24 02:10 86.79747 -66.12508 38348 ft 488 kts 235°
2026-04-24 02:11 86.75875 -67.12600 38352 ft 491 kts 234°
2026-04-24 02:11 86.71909 -68.09810 38350 ft 494 kts 233°
2026-04-24 02:12 86.67802 -69.05732 38355 ft 496 kts 232°
2026-04-24 02:12 86.63586 -69.99757 38352 ft 498 kts 231°
2026-04-24 02:13 86.59261 -70.91877 38360 ft 500 kts 230°
2026-04-24 02:13 86.54850 -71.81700 38362 ft 502 kts 230°
2026-04-24 02:14 86.50332 -72.69715 38366 ft 503 kts 229°
2026-04-24 02:14 86.45739 -73.55358 38372 ft 504 kts 228°
2026-04-24 02:15 86.41050 -74.39109 38373 ft 505 kts 227°
2026-04-24 02:15 86.36276 -75.20868 38376 ft 505 kts 226°
2026-04-24 02:16 86.31434 -76.00429 38380 ft 505 kts 225°
2026-04-24 02:16 86.26514 -76.78045 38390 ft 504 kts 224°
2026-04-24 02:17 86.21545 -77.53384 38392 ft 504 kts 224°
2026-04-24 02:17 86.16516 -78.26705 38397 ft 503 kts 223°
2026-04-24 02:18 86.11428 -78.98098 38408 ft 502 kts 222°
2026-04-24 02:18 86.06321 -79.67102 38404 ft 502 kts 221°
2026-04-24 02:19 86.01133 -80.34659 38406 ft 502 kts 221°
2026-04-24 02:19 85.95884 -81.00565 38409 ft 502 kts 220°
2026-04-24 02:20 85.90598 -81.64604 38422 ft 502 kts 219°
2026-04-24 02:20 85.85246 -82.27192 38422 ft 502 kts 219°
2026-04-24 02:21 85.79872 -82.87897 38426 ft 502 kts 218°
2026-04-24 02:21 85.74413 -83.47493 38431 ft 503 kts 218°
2026-04-24 02:22 85.68919 -84.05466 38435 ft 503 kts 217°
2026-04-24 02:22 85.63368 -84.62119 38438 ft 503 kts 217°
2026-04-24 02:23 85.57825 -85.16873 38440 ft 504 kts 216°
2026-04-24 02:23 85.52211 -85.70573 38444 ft 504 kts 216°
2026-04-24 02:24 85.46536 -86.23143 38444 ft 504 kts 215°
2026-04-24 02:24 85.40823 -86.74428 38454 ft 504 kts 214°
2026-04-24 02:25 85.35072 -87.24472 38458 ft 504 kts 214°
2026-04-24 02:25 85.29296 -87.73229 38461 ft 504 kts 213°
2026-04-24 02:26 85.23536 -88.20407 38464 ft 504 kts 213°
2026-04-24 02:26 85.17699 -88.66831 38468 ft 504 kts 212°
2026-04-24 02:27 85.11823 -89.12242 38475 ft 504 kts 212°
2026-04-24 02:27 85.05937 -89.56538 38472 ft 504 kts 212°
2026-04-24 02:28 85.00001 -89.99827 38477 ft 504 kts 210°
2026-04-24 02:28 84.93844 -90.38099 38470 ft 504 kts 207°
2026-04-24 02:29 84.87671 -90.74606 38493 ft 504 kts 207°
2026-04-24 02:29 84.81468 -91.11137 38490 ft 504 kts 207°
2026-04-24 02:30 84.75257 -91.47034 38495 ft 504 kts 207°
2026-04-24 02:30 84.69028 -91.82081 38499 ft 504 kts 206°
2026-04-24 02:31 84.62807 -92.16118 38504 ft 504 kts 206°
2026-04-24 02:31 84.56529 -92.49553 38508 ft 504 kts 205°
2026-04-24 02:32 84.51309 -92.76698 38510 ft 504 kts 205°
2026-04-24 02:32 84.43969 -93.13911 38510 ft 504 kts 205°
2026-04-24 02:33 84.38681 -93.40049 38517 ft 504 kts 205°
2026-04-24 02:33 84.32336 -93.70703 38520 ft 504 kts 204°
2026-04-24 02:34 84.25988 -94.00619 38528 ft 504 kts 204°
2026-04-24 02:34 84.19611 -94.29943 38537 ft 505 kts 204°
2026-04-24 02:35 84.13219 -94.58638 38536 ft 505 kts 203°
2026-04-24 02:35 84.06852 -94.86540 38538 ft 505 kts 203°
2026-04-24 02:36 84.00438 -95.13990 38543 ft 504 kts 202°
2026-04-24 02:36 83.93997 -95.40920 38546 ft 505 kts 202°
2026-04-24 02:37 83.87555 -95.67238 38547 ft 505 kts 202°
2026-04-24 02:37 83.81092 -95.93038 38552 ft 505 kts 202°
2026-04-24 02:38 83.74666 -96.18121 38552 ft 505 kts 201°
2026-04-24 02:38 83.68184 -96.42862 38557 ft 505 kts 201°
2026-04-24 02:39 83.61674 -96.67162 38559 ft 505 kts 201°
2026-04-24 02:39 83.55163 -96.90937 38562 ft 505 kts 201°
2026-04-24 02:40 83.48681 -97.14094 38569 ft 505 kts 201°
2026-04-24 02:40 83.42149 -97.36936 38571 ft 505 kts 200°
2026-04-24 02:41 83.35600 -97.59357 38572 ft 505 kts 200°
2026-04-24 02:41 83.29033 -97.81367 38578 ft 505 kts 200°
2026-04-24 02:42 83.22460 -98.02939 38576 ft 505 kts 200°
2026-04-24 02:42 83.15895 -98.24042 38578 ft 505 kts 199°
2026-04-24 02:43 83.09339 -98.44688 38592 ft 505 kts 199°
2026-04-24 02:43 83.02732 -98.65080 38591 ft 505 kts 199°
2026-04-24 02:44 82.96177 -98.84907 38594 ft 505 kts 199°
2026-04-24 02:44 82.89567 -99.04506 38587 ft 505 kts 199°
2026-04-24 02:45 82.82945 -99.23760 38596 ft 505 kts 198°
2026-04-24 02:45 82.76324 -99.42637 38600 ft 505 kts 198°
2026-04-24 02:46 82.69710 -99.61133 38607 ft 505 kts 198°
2026-04-24 02:46 82.63083 -99.79313 38602 ft 505 kts 198°
2026-04-24 02:47 82.56445 -99.97181 38608 ft 505 kts 198°
2026-04-24 02:47 82.49805 -100.14721 38613 ft 505 kts 198°
2026-04-24 02:48 82.43102 -100.32102 38611 ft 506 kts 197°
2026-04-24 02:48 82.36471 -100.48977 38611 ft 506 kts 197°
2026-04-24 02:49 82.29790 -100.65671 38619 ft 506 kts 197°
2026-04-24 02:49 82.23091 -100.82111 38618 ft 506 kts 197°
2026-04-24 02:50 82.16417 -100.98196 38622 ft 506 kts 197°
2026-04-24 02:50 82.09732 -101.14022 38630 ft 506 kts 197°
2026-04-24 02:51 82.03036 -101.29593 38622 ft 506 kts 196°
2026-04-24 02:51 81.96340 -101.44895 38628 ft 506 kts 196°
2026-04-24 02:52 81.89625 -101.59976 38631 ft 505 kts 196°
2026-04-24 02:52 81.82912 -101.74795 38627 ft 505 kts 196°
2026-04-24 02:53 81.76216 -101.89328 38636 ft 505 kts 195°
2026-04-24 02:53 81.69480 -102.03701 38630 ft 506 kts 195°
2026-04-24 02:54 81.62764 -102.17792 38637 ft 506 kts 195°
2026-04-24 02:54 81.55992 -102.31760 38635 ft 506 kts 195°
2026-04-24 02:55 81.49285 -102.45371 38632 ft 506 kts 195°
2026-04-24 02:55 81.42494 -102.58930 38644 ft 506 kts 195°
2026-04-24 02:56 81.35775 -102.72125 38641 ft 506 kts 195°
2026-04-24 02:56 81.29020 -102.85181 38644 ft 506 kts 194°
2026-04-24 02:57 81.22220 -102.98110 38640 ft 506 kts 194°
2026-04-24 02:57 81.15459 -103.10762 38648 ft 506 kts 194°
2026-04-24 02:58 81.08699 -103.23219 38650 ft 506 kts 194°
2026-04-24 02:58 81.01932 -103.35494 38646 ft 506 kts 194°
2026-04-24 02:59 80.95126 -103.47643 38646 ft 507 kts 194°
2026-04-24 02:59 80.88366 -103.59531 38646 ft 507 kts 194°
2026-04-24 03:00 80.81543 -103.71347 38649 ft 507 kts 194°
2026-04-24 03:00 80.74745 -103.82940 38653 ft 507 kts 194°
2026-04-24 03:01 80.67940 -103.94375 38653 ft 507 kts 194°
2026-04-24 03:01 80.61134 -104.05641 38657 ft 507 kts 193°
2026-04-24 03:02 80.54304 -104.16777 38650 ft 507 kts 193°
2026-04-24 03:02 80.47504 -104.27703 38655 ft 507 kts 193°
2026-04-24 03:03 80.40677 -104.38518 38655 ft 507 kts 193°
2026-04-24 03:03 80.33854 -104.49168 38661 ft 507 kts 193°
2026-04-24 03:04 80.27010 -104.59705 38657 ft 507 kts 193°
2026-04-24 03:04 80.20189 -104.70059 38662 ft 507 kts 193°
2026-04-24 03:05 80.13313 -104.80359 38653 ft 507 kts 193°
2026-04-24 03:05 80.06497 -104.90457 38661 ft 507 kts 193°
2026-04-24 03:06 79.99667 -105.00406 38646 ft 507 kts 193°
2026-04-24 03:06 79.92812 -105.10423 38657 ft 507 kts 193°
2026-04-24 03:07 79.85979 -105.20481 38655 ft 507 kts 193°
2026-04-24 03:07 79.79145 -105.30458 38658 ft 507 kts 193°
2026-04-24 03:08 79.68859 -105.45196 38655 ft 507 kts 193°
2026-04-24 03:09 79.62072 -105.54742 38658 ft 507 kts 193°
2026-04-24 03:09 79.55214 -105.64257 38663 ft 507 kts 193°
2026-04-24 03:10 79.48362 -105.73638 38664 ft 507 kts 193°
2026-04-24 03:10 79.41530 -105.82870 38646 ft 507 kts 193°
2026-04-24 03:11 79.34654 -105.92040 38657 ft 507 kts 193°
2026-04-24 03:11 79.27843 -106.01005 38663 ft 507 kts 193°
2026-04-24 03:12 79.20979 -106.09924 38644 ft 507 kts 193°
2026-04-24 03:12 79.14099 -106.18750 38644 ft 507 kts 193°
2026-04-24 03:13 79.07238 -106.27436 38648 ft 507 kts 192°
2026-04-24 03:13 79.00359 -106.36035 38649 ft 507 kts 192°
2026-04-24 03:14 78.93531 -106.44463 38659 ft 507 kts 192°
2026-04-24 03:14 78.86623 -106.52884 38644 ft 507 kts 192°
2026-04-24 03:15 78.79765 -106.61139 38646 ft 507 kts 192°
2026-04-24 03:15 78.72909 -106.69290 38651 ft 507 kts 192°
2026-04-24 03:16 78.66030 -106.77369 38642 ft 508 kts 192°
2026-04-24 03:16 78.59143 -106.85357 38658 ft 508 kts 192°
2026-04-24 03:17 78.53411 -106.91931 38642 ft 508 kts 192°
2026-04-24 03:17 78.45383 -107.01029 38667 ft 508 kts 192°
2026-04-24 03:18 78.39597 -107.07507 38641 ft 508 kts 192°
2026-04-24 03:18 78.32730 -107.15112 38648 ft 508 kts 192°
2026-04-24 03:19 78.25811 -107.22681 38647 ft 508 kts 192°
2026-04-24 03:19 78.18895 -107.30159 38645 ft 509 kts 192°
2026-04-24 03:20 78.11975 -107.37553 38648 ft 508 kts 192°
2026-04-24 03:20 78.05062 -107.44853 38646 ft 509 kts 192°
2026-04-24 03:21 77.98131 -107.52087 38640 ft 509 kts 192°
2026-04-24 03:21 77.91232 -107.59206 38552 ft 511 kts 192°
2026-04-24 03:21 77.87760 -107.62758 38125 ft 510 kts 192°
2026-04-24 03:22 77.84289 -107.66290 37757 ft 511 kts 192°
2026-04-24 03:22 77.80779 -107.69843 37410 ft 519 kts 192°
2026-04-24 03:22 77.77210 -107.73436 37064 ft 528 kts 192°
2026-04-24 03:22 77.73569 -107.77083 36725 ft 537 kts 192°
2026-04-24 03:23 77.69940 -107.80697 36503 ft 541 kts 192°
2026-04-24 03:23 77.66301 -107.84298 36708 ft 525 kts 191°
2026-04-24 03:23 77.62768 -107.87763 36819 ft 516 kts 191°
2026-04-24 03:23 77.59242 -107.91194 36372 ft 521 kts 191°
2026-04-24 03:24 77.55679 -107.94644 35962 ft 523 kts 191°
2026-04-24 03:24 77.52105 -107.98092 35552 ft 525 kts 191°
2026-04-24 03:24 77.48537 -108.01519 35279 ft 521 kts 191°
2026-04-24 03:25 77.41437 -108.08277 35251 ft 521 kts 191°
2026-04-24 03:25 77.34334 -108.14954 35248 ft 522 kts 191°
2026-04-24 03:26 77.27204 -108.21582 35246 ft 523 kts 191°
2026-04-24 03:26 77.23673 -108.24837 35231 ft 509 kts 191°
2026-04-24 03:26 77.20262 -108.27961 35229 ft 491 kts 191°
2026-04-24 03:26 77.16976 -108.30951 35230 ft 475 kts 191°
2026-04-24 03:27 77.13748 -108.33867 35243 ft 473 kts 191°
2026-04-24 03:27 77.07316 -108.39648 35246 ft 475 kts 191°
2026-04-24 03:28 77.00840 -108.45427 35253 ft 474 kts 191°
2026-04-24 03:28 76.94372 -108.51141 35248 ft 473 kts 191°
2026-04-24 03:29 76.87919 -108.56783 35251 ft 471 kts 191°
2026-04-24 03:29 76.81491 -108.62346 35246 ft 470 kts 191°
2026-04-24 03:30 76.75075 -108.67845 35246 ft 469 kts 191°
2026-04-24 03:30 76.68660 -108.73292 35244 ft 469 kts 191°
2026-04-24 03:31 76.62252 -108.78680 35244 ft 469 kts 191°
2026-04-24 03:31 76.55878 -108.83989 35251 ft 470 kts 191°
2026-04-24 03:32 76.49450 -108.89293 35250 ft 470 kts 191°
2026-04-24 03:32 76.43001 -108.94565 35251 ft 471 kts 191°
2026-04-24 03:33 76.36554 -108.99784 35250 ft 472 kts 191°
2026-04-24 03:33 76.30092 -109.04968 35251 ft 473 kts 191°
2026-04-24 03:34 76.23666 -109.10074 35249 ft 473 kts 191°
2026-04-24 03:34 76.17195 -109.15167 35251 ft 473 kts 191°
2026-04-24 03:35 76.10755 -109.20187 35230 ft 462 kts 191°
2026-04-24 03:35 76.07635 -109.22597 35233 ft 451 kts 190°
2026-04-24 03:35 76.04556 -109.24962 35237 ft 448 kts 190°
2026-04-24 03:36 75.98424 -109.29650 35250 ft 448 kts 190°
2026-04-24 03:36 75.92286 -109.34315 35253 ft 449 kts 190°
2026-04-24 03:37 75.86140 -109.38947 35254 ft 449 kts 190°
2026-04-24 03:37 75.79980 -109.43547 35250 ft 450 kts 190°
2026-04-24 03:38 75.73802 -109.48119 35250 ft 450 kts 190°
2026-04-24 03:38 75.67670 -109.52618 35251 ft 451 kts 190°
2026-04-24 03:39 75.61477 -109.57124 35251 ft 451 kts 190°
2026-04-24 03:39 75.55293 -109.61586 35249 ft 451 kts 190°
2026-04-24 03:40 75.49156 -109.65976 35249 ft 451 kts 190°
2026-04-24 03:40 75.42983 -109.70356 35249 ft 451 kts 190°
2026-04-24 03:41 75.36802 -109.74708 35253 ft 451 kts 190°
2026-04-24 03:41 75.30620 -109.79026 35253 ft 450 kts 190°
2026-04-24 03:42 75.24446 -109.83304 35251 ft 450 kts 190°
2026-04-24 03:42 75.18274 -109.87551 35261 ft 450 kts 190°
2026-04-24 03:43 75.12141 -109.91745 35258 ft 450 kts 190°
2026-04-24 03:43 75.05928 -109.95973 35256 ft 450 kts 190°
2026-04-24 03:44 74.99808 -110.00377 35253 ft 449 kts 195°
2026-04-24 03:44 74.93887 -110.07864 35267 ft 447 kts 200°
2026-04-24 03:45 74.87994 -110.15728 35265 ft 448 kts 200°
2026-04-24 03:45 74.82088 -110.23499 35260 ft 449 kts 200°
2026-04-24 03:46 74.76207 -110.31163 35264 ft 449 kts 200°
2026-04-24 03:46 74.70280 -110.38825 35260 ft 450 kts 200°
2026-04-24 03:47 74.64349 -110.46431 35259 ft 450 kts 200°
2026-04-24 03:47 74.58410 -110.53986 35263 ft 450 kts 200°
2026-04-24 03:48 74.52465 -110.61490 35259 ft 450 kts 200°
2026-04-24 03:48 74.46525 -110.68929 35268 ft 450 kts 200°
2026-04-24 03:49 74.40620 -110.76266 35269 ft 450 kts 199°
2026-04-24 03:49 74.34676 -110.83593 35264 ft 450 kts 199°
2026-04-24 03:50 74.28731 -110.90864 35268 ft 449 kts 199°
2026-04-24 03:50 74.22797 -110.98068 35271 ft 449 kts 199°
2026-04-24 03:51 74.16891 -111.05181 35266 ft 449 kts 199°
2026-04-24 03:51 74.10955 -111.12275 35270 ft 449 kts 199°
2026-04-24 03:52 74.05018 -111.19317 35271 ft 449 kts 199°
2026-04-24 03:52 73.99068 -111.26321 35274 ft 449 kts 199°
2026-04-24 03:53 73.93122 -111.33267 35273 ft 449 kts 199°
2026-04-24 03:53 73.87164 -111.40175 35273 ft 449 kts 199°
2026-04-24 03:54 73.81210 -111.47027 35274 ft 450 kts 199°
2026-04-24 03:54 73.75242 -111.53841 35272 ft 450 kts 199°
2026-04-24 03:55 73.69317 -111.60557 35274 ft 450 kts 199°
2026-04-24 03:55 73.63345 -111.67276 35273 ft 450 kts 199°
2026-04-24 03:56 73.57351 -111.73968 35274 ft 450 kts 199°
2026-04-24 03:56 73.51406 -111.80554 35257 ft 441 kts 199°
2026-04-24 03:57 73.45673 -111.86848 35256 ft 432 kts 199°
2026-04-24 03:57 73.39908 -111.93150 35285 ft 437 kts 199°
2026-04-24 03:58 73.34067 -111.99500 35278 ft 441 kts 199°
2026-04-24 03:58 73.28195 -112.05829 35275 ft 442 kts 199°
2026-04-24 03:59 73.22313 -112.12119 35273 ft 442 kts 199°
2026-04-24 03:59 73.16443 -112.18346 35268 ft 440 kts 199°
2026-04-24 04:00 73.10590 -112.24516 35269 ft 439 kts 199°
2026-04-24 04:00 73.04796 -112.30582 35268 ft 437 kts 199°
2026-04-24 04:01 72.98975 -112.36635 35269 ft 436 kts 199°
2026-04-24 04:01 72.93177 -112.42621 35271 ft 435 kts 199°
2026-04-24 04:02 72.87382 -112.48565 35272 ft 435 kts 199°
2026-04-24 04:02 72.81579 -112.54477 35279 ft 436 kts 199°
2026-04-24 04:03 72.75755 -112.60372 35272 ft 437 kts 199°
2026-04-24 04:03 72.69955 -112.66199 35276 ft 438 kts 199°
2026-04-24 04:04 72.64097 -112.72043 35285 ft 440 kts 199°
2026-04-24 04:04 72.58224 -112.77863 35289 ft 440 kts 199°
2026-04-24 04:05 72.52335 -112.83660 35288 ft 441 kts 199°
2026-04-24 04:05 72.47435 -112.88453 35283 ft 441 kts 199°
2026-04-24 04:06 72.41542 -112.94180 35282 ft 441 kts 199°
2026-04-24 04:06 72.35654 -112.99864 35282 ft 440 kts 199°
2026-04-24 04:07 72.29782 -113.05494 35282 ft 439 kts 199°
2026-04-24 04:07 72.23926 -113.11073 35283 ft 438 kts 199°
2026-04-24 04:08 72.18079 -113.16606 35285 ft 437 kts 199°
2026-04-24 04:08 72.12271 -113.22066 35285 ft 436 kts 199°
2026-04-24 04:09 72.06435 -113.27518 35292 ft 436 kts 199°
2026-04-24 04:09 72.00586 -113.32947 35296 ft 436 kts 199°
2026-04-24 04:10 71.94745 -113.38331 35298 ft 437 kts 199°
2026-04-24 04:10 71.88885 -113.43700 35286 ft 438 kts 199°
2026-04-24 04:11 71.80114 -113.51669 35283 ft 439 kts 199°
2026-04-24 04:11 71.74228 -113.56972 35304 ft 439 kts 199°
2026-04-24 04:12 71.68338 -113.62246 35288 ft 440 kts 199°
2026-04-24 04:12 71.62449 -113.67485 35286 ft 440 kts 198°
2026-04-24 04:13 71.56555 -113.72694 35290 ft 439 kts 198°
2026-04-24 04:13 71.50662 -113.77869 35286 ft 439 kts 198°
2026-04-24 04:14 71.44769 -113.83011 35275 ft 439 kts 198°
2026-04-24 04:14 71.38886 -113.88111 35300 ft 438 kts 198°
2026-04-24 04:15 71.33007 -113.93175 35294 ft 437 kts 198°
2026-04-24 04:15 71.27181 -113.98164 35298 ft 437 kts 198°
2026-04-24 04:16 71.21317 -114.03156 35291 ft 437 kts 198°
2026-04-24 04:16 71.15455 -114.08113 35294 ft 436 kts 198°
2026-04-24 04:17 71.09589 -114.13045 35293 ft 436 kts 198°
2026-04-24 04:17 71.03724 -114.17944 35297 ft 436 kts 198°
2026-04-24 04:18 70.97855 -114.22816 35293 ft 437 kts 198°
2026-04-24 04:18 70.92013 -114.27636 35303 ft 437 kts 198°
2026-04-24 04:19 70.86135 -114.32457 35297 ft 437 kts 198°
2026-04-24 04:19 70.80260 -114.37245 35300 ft 437 kts 198°
2026-04-24 04:20 70.74390 -114.42001 35304 ft 437 kts 198°
2026-04-24 04:20 70.68500 -114.46745 35309 ft 437 kts 198°
2026-04-24 04:21 70.62653 -114.51426 35304 ft 437 kts 198°
2026-04-24 04:21 70.56772 -114.56105 35306 ft 436 kts 198°
2026-04-24 04:22 70.50902 -114.60749 35301 ft 436 kts 198°
2026-04-24 04:22 70.45031 -114.65366 35307 ft 436 kts 198°
2026-04-24 04:23 70.39164 -114.69954 35300 ft 436 kts 198°
2026-04-24 04:23 70.33295 -114.74517 35304 ft 435 kts 198°
2026-04-24 04:24 70.27463 -114.79026 35301 ft 435 kts 198°
2026-04-24 04:24 70.21593 -114.83541 35307 ft 435 kts 198°
2026-04-24 04:25 70.15720 -114.88035 35296 ft 436 kts 198°
2026-04-24 04:25 70.09852 -114.92509 35303 ft 435 kts 198°
2026-04-24 04:26 70.03968 -114.96972 35300 ft 435 kts 197°
2026-04-24 04:26 69.98109 -115.01041 35305 ft 436 kts 193°
2026-04-24 04:27 69.92107 -115.03924 35298 ft 437 kts 192°
2026-04-24 04:27 69.86097 -115.06739 35305 ft 437 kts 192°
2026-04-24 04:28 69.80126 -115.09595 35301 ft 437 kts 192°
2026-04-24 04:28 69.77121 -115.11046 35125 ft 439 kts 193°
2026-04-24 04:28 69.74097 -115.12510 35213 ft 442 kts 193°
2026-04-24 04:29 69.67977 -115.15475 35299 ft 448 kts 193°
2026-04-24 04:29 69.61802 -115.18441 35303 ft 450 kts 193°
2026-04-24 04:30 69.55600 -115.21397 35304 ft 451 kts 193°
2026-04-24 04:30 69.49460 -115.24303 35294 ft 449 kts 193°
2026-04-24 04:31 69.43305 -115.27200 35295 ft 446 kts 193°
2026-04-24 04:31 69.37210 -115.30053 35294 ft 443 kts 193°
2026-04-24 04:32 69.31140 -115.32881 35297 ft 441 kts 193°
2026-04-24 04:32 69.25085 -115.35689 35297 ft 440 kts 193°
2026-04-24 04:33 69.19066 -115.38465 35298 ft 441 kts 193°
2026-04-24 04:33 69.13005 -115.41245 35305 ft 442 kts 193°
2026-04-24 04:34 69.06913 -115.44024 35300 ft 444 kts 193°
2026-04-24 04:34 69.00795 -115.46797 35300 ft 446 kts 193°
2026-04-24 04:35 68.94647 -115.49568 35301 ft 448 kts 193°
2026-04-24 04:35 68.88475 -115.52330 35296 ft 449 kts 193°
2026-04-24 04:36 68.82309 -115.55076 35298 ft 449 kts 193°
2026-04-24 04:36 68.76149 -115.57803 35290 ft 448 kts 193°
2026-04-24 04:37 68.70004 -115.60508 35285 ft 446 kts 193°
2026-04-24 04:37 68.63886 -115.63186 35287 ft 445 kts 193°
2026-04-24 04:38 68.57823 -115.65826 35288 ft 443 kts 193°
2026-04-24 04:38 68.51732 -115.68466 35289 ft 442 kts 193°
2026-04-24 04:39 68.45657 -115.71084 35294 ft 442 kts 193°
2026-04-24 04:39 68.39573 -115.73693 35296 ft 443 kts 193°
2026-04-24 04:40 68.33476 -115.76294 35296 ft 444 kts 193°
2026-04-24 04:40 68.27349 -115.78892 35295 ft 445 kts 193°
2026-04-24 04:41 68.21258 -115.81461 35295 ft 446 kts 193°
2026-04-24 04:41 68.15116 -115.84037 35294 ft 447 kts 193°
2026-04-24 04:42 68.08951 -115.86608 35293 ft 448 kts 193°
2026-04-24 04:42 68.02790 -115.89163 35283 ft 448 kts 193°
2026-04-24 04:43 67.96618 -115.91708 35283 ft 447 kts 193°
2026-04-24 04:43 67.90515 -115.94212 35281 ft 446 kts 193°
2026-04-24 04:44 67.84372 -115.96719 35280 ft 446 kts 193°
2026-04-24 04:44 67.78242 -115.99208 35275 ft 445 kts 193°
2026-04-24 04:45 67.72121 -116.01680 35279 ft 444 kts 193°
2026-04-24 04:45 67.66006 -116.04138 35276 ft 444 kts 193°
2026-04-24 04:46 67.59893 -116.06581 35276 ft 444 kts 193°
2026-04-24 04:46 67.53810 -116.09000 35269 ft 445 kts 193°
2026-04-24 04:47 67.47686 -116.11423 35282 ft 445 kts 193°
2026-04-24 04:47 67.41550 -116.13839 35268 ft 446 kts 193°
2026-04-24 04:48 67.35400 -116.16246 35271 ft 446 kts 193°
2026-04-24 04:48 67.29280 -116.18629 35270 ft 447 kts 192°
2026-04-24 04:49 67.23122 -116.21015 35263 ft 447 kts 192°
2026-04-24 04:49 67.16967 -116.23386 35262 ft 447 kts 192°
2026-04-24 04:50 67.10811 -116.25746 35264 ft 447 kts 192°
2026-04-24 04:50 67.04658 -116.28093 35264 ft 447 kts 192°
2026-04-24 04:51 66.99537 -116.30037 35249 ft 447 kts 192°
2026-04-24 04:51 66.93396 -116.32359 35253 ft 446 kts 192°
2026-04-24 04:52 66.87245 -116.34670 35246 ft 446 kts 192°
2026-04-24 04:52 66.80113 -116.37336 35249 ft 445 kts 192°
2026-04-24 04:53 66.74978 -116.39247 35254 ft 445 kts 192°
2026-04-24 04:53 66.68887 -116.41504 35247 ft 445 kts 192°
2026-04-24 04:54 66.62740 -116.43769 35240 ft 445 kts 192°
2026-04-24 04:54 66.56603 -116.46020 35240 ft 445 kts 192°
2026-04-24 04:55 66.50471 -116.48258 35233 ft 446 kts 192°
2026-04-24 04:55 66.44329 -116.50487 35233 ft 446 kts 192°
2026-04-24 04:56 66.38186 -116.52706 35225 ft 446 kts 192°
2026-04-24 04:56 66.32081 -116.54900 35224 ft 446 kts 192°
2026-04-24 04:57 66.25941 -116.57097 35225 ft 446 kts 192°
2026-04-24 04:57 66.19791 -116.59286 35215 ft 445 kts 192°
2026-04-24 04:58 66.13662 -116.61457 35212 ft 445 kts 192°
2026-04-24 04:58 66.07525 -116.63619 35206 ft 445 kts 192°
2026-04-24 04:59 66.01404 -116.65767 35204 ft 444 kts 192°
2026-04-24 04:59 65.95277 -116.67906 35200 ft 444 kts 192°
2026-04-24 05:00 65.89168 -116.70029 35202 ft 443 kts 192°
2026-04-24 05:00 65.83096 -116.72129 35210 ft 443 kts 192°
2026-04-24 05:01 65.76989 -116.74231 35212 ft 443 kts 192°
2026-04-24 05:01 65.70879 -116.76324 35209 ft 443 kts 192°
2026-04-24 05:02 65.64768 -116.78408 35212 ft 443 kts 192°
2026-04-24 05:02 65.58683 -116.80474 35201 ft 443 kts 192°
2026-04-24 05:03 65.52571 -116.82538 35205 ft 443 kts 192°
2026-04-24 05:03 65.46461 -116.84594 35214 ft 443 kts 192°
2026-04-24 05:04 65.40334 -116.86646 35203 ft 444 kts 191°
2026-04-24 05:04 65.34222 -116.88684 35202 ft 444 kts 191°
2026-04-24 05:05 65.28103 -116.90715 35199 ft 444 kts 191°
2026-04-24 05:05 65.21987 -116.92739 35197 ft 444 kts 191°
2026-04-24 05:06 65.15864 -116.94758 35197 ft 444 kts 191°
2026-04-24 05:06 65.09743 -116.96774 35188 ft 444 kts 191°
2026-04-24 05:07 65.03622 -116.98786 35187 ft 444 kts 191°
2026-04-24 05:07 64.97503 -117.00710 35190 ft 444 kts 189°
2026-04-24 05:08 64.91370 -117.02121 35182 ft 446 kts 188°
2026-04-24 05:08 64.85185 -117.03433 35175 ft 445 kts 188°
2026-04-24 05:09 64.79003 -117.04811 35166 ft 445 kts 188°
2026-04-24 05:09 64.72823 -117.06235 35169 ft 445 kts 188°
2026-04-24 05:10 64.66698 -117.07658 35169 ft 446 kts 188°
2026-04-24 05:10 64.60527 -117.09085 35162 ft 446 kts 188°
2026-04-24 05:11 64.54343 -117.10508 35161 ft 446 kts 188°
2026-04-24 05:11 64.48159 -117.11922 35157 ft 446 kts 188°
2026-04-24 05:12 64.41975 -117.13330 35160 ft 446 kts 188°
2026-04-24 05:12 64.35793 -117.14731 35156 ft 446 kts 188°
2026-04-24 05:13 64.26554 -117.16814 35155 ft 446 kts 188°
2026-04-24 05:14 64.20374 -117.18199 35154 ft 446 kts 188°
2026-04-24 05:14 64.14188 -117.19579 35164 ft 446 kts 188°
2026-04-24 05:15 64.07997 -117.20954 35154 ft 447 kts 188°
2026-04-24 05:15 64.01839 -117.22316 35148 ft 447 kts 188°
2026-04-24 05:16 63.95650 -117.23677 35155 ft 446 kts 188°
2026-04-24 05:16 63.89465 -117.25033 35156 ft 446 kts 188°
2026-04-24 05:17 63.83279 -117.26382 35147 ft 446 kts 188°
2026-04-24 05:17 63.77104 -117.27723 35148 ft 446 kts 188°
2026-04-24 05:18 63.70929 -117.29059 35151 ft 446 kts 188°
2026-04-24 05:18 63.64749 -117.30391 35154 ft 446 kts 188°
2026-04-24 05:19 63.58572 -117.31715 35155 ft 446 kts 188°
2026-04-24 05:19 63.52380 -117.33038 35152 ft 446 kts 187°
2026-04-24 05:20 63.46190 -117.34353 35156 ft 447 kts 187°
2026-04-24 05:20 63.40027 -117.35657 35156 ft 447 kts 187°
2026-04-24 05:21 63.33826 -117.36964 35151 ft 448 kts 187°
2026-04-24 05:21 63.27645 -117.38261 35150 ft 448 kts 187°
2026-04-24 05:22 63.21440 -117.39557 35151 ft 448 kts 187°
2026-04-24 05:22 63.15211 -117.40852 35149 ft 448 kts 187°
2026-04-24 05:23 63.09046 -117.42129 35152 ft 448 kts 187°
2026-04-24 05:23 63.02837 -117.43410 35154 ft 448 kts 187°
2026-04-24 05:24 62.96625 -117.44685 35155 ft 448 kts 187°
2026-04-24 05:24 62.90418 -117.45954 35155 ft 448 kts 187°
2026-04-24 05:25 62.84215 -117.47217 35158 ft 448 kts 187°
2026-04-24 05:25 62.78035 -117.48470 35161 ft 448 kts 187°
2026-04-24 05:26 62.71823 -117.49724 35160 ft 448 kts 187°
2026-04-24 05:26 62.65613 -117.50973 35160 ft 448 kts 187°
2026-04-24 05:27 62.59389 -117.52219 35162 ft 448 kts 187°
2026-04-24 05:27 62.53211 -117.53451 35159 ft 449 kts 187°
2026-04-24 05:28 62.46984 -117.54686 35158 ft 449 kts 187°
2026-04-24 05:28 62.40757 -117.55918 35160 ft 449 kts 187°
2026-04-24 05:29 62.34528 -117.57145 35165 ft 449 kts 186°
2026-04-24 05:29 62.28298 -117.58366 35163 ft 449 kts 186°
2026-04-24 05:30 62.22100 -117.59576 35165 ft 449 kts 186°
2026-04-24 05:30 62.15876 -117.60786 35170 ft 449 kts 186°
2026-04-24 05:31 62.09636 -117.61995 35154 ft 450 kts 186°
2026-04-24 05:31 62.03400 -117.63197 35168 ft 450 kts 186°
2026-04-24 05:32 61.97159 -117.64396 35167 ft 450 kts 186°
2026-04-24 05:32 61.90954 -117.65583 35171 ft 450 kts 186°
2026-04-24 05:33 61.84708 -117.66773 35173 ft 450 kts 186°
2026-04-24 05:33 61.78463 -117.67958 35178 ft 450 kts 186°
2026-04-24 05:34 61.69090 -117.69727 35178 ft 451 kts 186°
2026-04-24 05:34 61.62842 -117.70900 35178 ft 451 kts 186°
2026-04-24 05:35 61.56625 -117.72063 35184 ft 451 kts 186°
2026-04-24 05:35 61.50362 -117.73230 35188 ft 451 kts 186°
2026-04-24 05:36 61.44109 -117.74390 35186 ft 451 kts 186°
2026-04-24 05:36 61.37846 -117.75548 35186 ft 451 kts 186°
2026-04-24 05:37 61.31584 -117.76701 35182 ft 452 kts 186°
2026-04-24 05:37 61.25323 -117.77849 35189 ft 452 kts 186°
2026-04-24 05:38 61.19096 -117.78986 35189 ft 452 kts 185°
2026-04-24 05:38 61.12831 -117.80126 35184 ft 452 kts 185°
2026-04-24 05:39 61.06559 -117.81262 35181 ft 452 kts 185°
2026-04-24 05:39 61.00290 -117.82394 35186 ft 452 kts 185°
2026-04-24 05:40 60.94051 -117.83515 35183 ft 452 kts 185°
2026-04-24 05:40 60.87774 -117.84639 35185 ft 452 kts 185°
2026-04-24 05:41 60.82550 -117.85572 35181 ft 453 kts 185°
2026-04-24 05:41 60.76258 -117.86691 35182 ft 453 kts 185°
2026-04-24 05:42 60.69969 -117.87806 35178 ft 453 kts 185°
2026-04-24 05:42 60.63678 -117.88916 35179 ft 454 kts 185°
2026-04-24 05:43 60.57392 -117.90022 35172 ft 454 kts 185°
2026-04-24 05:43 60.51124 -117.91120 35171 ft 454 kts 185°
2026-04-24 05:44 60.44814 -117.92222 35174 ft 455 kts 185°
2026-04-24 05:44 60.38501 -117.93321 35169 ft 455 kts 185°
2026-04-24 05:45 60.32251 -117.94404 35144 ft 443 kts 185°
2026-04-24 05:45 60.26195 -117.95449 35163 ft 438 kts 185°
2026-04-24 05:46 60.20061 -117.96510 35165 ft 445 kts 185°
2026-04-24 05:46 60.13882 -117.97578 35159 ft 447 kts 185°
2026-04-24 05:47 60.07650 -117.98658 35161 ft 447 kts 185°
2026-04-24 05:47 60.01496 -117.99712 35155 ft 447 kts 185°
2026-04-24 05:48 59.95288 -118.00941 35151 ft 445 kts 186°
2026-04-24 05:48 59.89168 -118.02441 35154 ft 444 kts 187°
2026-04-24 05:49 59.83060 -118.03970 35155 ft 443 kts 187°
2026-04-24 05:49 59.76942 -118.05470 35155 ft 443 kts 187°
2026-04-24 05:50 59.70803 -118.06952 35152 ft 443 kts 187°
2026-04-24 05:50 59.64668 -118.08422 35153 ft 444 kts 187°
2026-04-24 05:51 59.58532 -118.09886 35164 ft 445 kts 186°
2026-04-24 05:51 59.52383 -118.11348 35163 ft 447 kts 187°
2026-04-24 05:52 59.46197 -118.12814 35155 ft 448 kts 186°
2026-04-24 05:52 59.39998 -118.14278 35149 ft 448 kts 186°
2026-04-24 05:53 59.33803 -118.15735 35158 ft 449 kts 186°
2026-04-24 05:53 59.27595 -118.17190 35150 ft 449 kts 186°
2026-04-24 05:54 59.24475 -118.17919 35148 ft 449 kts 186°